GFSNW_prec_cthk_051.txt.gz
RH
35 30 35 39 67 81 85 77 75 76 84 83 91 94 95 98 98 97 92 84 79 76 80 81 67 58 53 48 45 53 53 58 70 66 58 57 59 62 58 64 56 66 72 61
33 28 33 41 73 72 64 68 73 75 78 91 94 95 97 98 95 90 80 73 70 72 76 79 68 60 54 52 51 53 56 64 66 67 61 59 62 61 59 61 68 73 81 68
36 29 30 41 71 60 70 70 78 84 90 96 98 98 97 98 93 88 74 69 66 68 75 76 74 66 63 61 61 60 60 65 65 68 63 61 63 60 63 69 86 77 74 67
32 33 26 40 70 66 66 74 84 91 93 95 97 97 97 97 91 82 74 73 73 75 79 77 74 70 70 69 66 66 64 69 65 64 64 63 67 65 69 77 76 84 63 72
29 34 26 34 60 64 70 79 89 89 96 95 94 98 98 97 86 83 77 76 70 68 75 69 68 67 67 67 66 63 64 68 66 66 57 59 60 61 76 77 79 76 78 74
23 27 26 27 53 64 68 72 76 81 89 97 98 98 95 89 84 83 81 79 76 70 68 63 59 58 58 61 61 61 66 68 71 67 57 58 69 78 78 80 79 79 88 80
25 21 23 26 46 64 71 69 72 78 84 83 85 84 83 81 81 75 69 67 68 71 66 62 60 60 61 62 63 62 69 70 72 70 66 71 64 71 76 80 81 85 88 82
24 28 21 28 46 59 71 73 72 73 76 76 73 78 80 80 78 74 73 69 65 66 65 67 72 71 69 70 69 67 69 75 77 74 73 66 74 76 78 82 87 87 86 83
21 29 32 29 43 55 67 73 73 73 73 70 73 74 76 81 78 75 75 69 67 67 71 71 71 74 65 74 74 72 75 74 82 77 85 84 78 73 80 85 92 84 85 90
24 20 34 37 45 52 68 75 76 76 74 71 72 73 76 77 74 74 71 70 70 69 73 78 79 74 64 74 74 77 79 81 79 76 86 76 67 75 81 88 81 81 83 86
28 20 24 36 45 50 68 78 79 80 79 76 72 74 76 74 74 75 75 73 75 76 75 78 78 79 73 67 72 75 78 81 79 82 88 86 75 75 78 76 79 78 80 82
31 24 18 31 41 48 64 76 81 81 81 77 73 76 77 73 75 75 76 77 76 78 79 80 82 81 77 73 75 72 78 70 80 82 79 71 67 72 72 72 76 76 79 79
33 27 19 21 38 49 63 77 82 83 83 82 78 78 78 76 76 78 78 79 79 79 79 82 84 87 81 82 75 73 74 73 79 86 79 75 75 75 76 73 74 75 76 81
34 28 21 21 31 49 62 79 84 88 89 87 84 83 82 79 80 78 77 77 76 77 78 80 82 85 81 81 78 78 76 76 76 82 80 76 77 78 77 71 75 80 79 80
34 26 23 21 31 49 62 75 82 88 89 86 86 81 79 78 77 76 77 78 79 79 81 83 84 84 81 80 75 75 72 73 77 81 81 80 78 73 68 69 76 81 81 82
31 24 25 27 32 51 63 84 88 85 86 86 82 84 84 81 78 77 79 82 83 85 90 91 84 84 85 84 80 73 74 73 71 70 74 76 74 70 67 68 76 82 84 84
21 26 26 28 35 53 72 86 86 88 86 88 87 90 92 91 88 84 83 86 90 94 95 91 91 91 88 84 78 78 77 73 71 71 72 72 68 65 63 66 74 83 86 86
23 26 27 30 41 55 81 83 84 84 85 87 89 88 89 94 96 96 96 98 98 98 98 95 95 91 87 84 80 80 78 73 69 66 66 65 65 63 61 64 75 81 86 86
29 28 28 29 46 74 85 87 85 83 81 83 86 89 88 93 97 98 98 98 98 98 98 97 97 94 90 86 85 85 85 81 78 72 70 71 71 70 69 70 81 85 86 88
28 33 40 48 73 85 87 88 88 86 78 78 80 83 87 89 96 97 96 98 98 98 98 98 98 95 91 89 85 83 82 81 78 78 77 76 75 74 75 85 89 88 89 90
30 40 54 64 81 81 80 82 84 81 75 76 78 82 85 92 95 97 97 98 98 98 98 98 98 98 92 86 79 76 73 73 75 78 79 77 77 80 88 90 92 92 93 93
30 40 59 74 80 86 82 79 80 76 76 79 80 84 86 91 94 97 97 98 98 98 98 98 97 96 88 79 75 82 84 80 74 76 80 81 82 86 90 92 95 95 94 94
41 45 66 74 81 84 79 77 77 75 76 79 81 84 87 92 94 96 97 97 98 98 98 98 98 93 83 84 80 88 90 90 91 89 87 91 94 94 95 97 97 97 94 92
48 47 60 73 83 78 80 77 76 76 79 80 82 85 89 92 94 93 94 95 96 98 98 98 94 83 77 82 86 92 98 98 95 93 93 98 95 94 93 94 97 95 90 87
57 51 56 63 67 76 78 76 76 80 81 82 85 86 86 89 89 88 89 91 93 96 98 96 89 84 80 74 82 92 98 99 98 95 93 93 93 92 95 93 93 92 90 86
58 52 54 53 57 66 73 77 80 83 83 86 87 89 87 86 85 85 85 85 86 93 86 86 83 82 79 76 73 77 93 93 93 93 92 92 92 92 91 94 96 94 91 86
61 51 48 53 48 48 57 67 78 82 87 91 90 88 86 85 85 82 79 82 87 88 84 81 82 82 78 75 74 74 72 71 74 84 88 88 85 83 84 87 90 92 91 86

GFSNW_prec_cthk_054.txt.gz
RH
31 30 30 44 50 52 55 54 60 72 78 83 91 97 98 98 97 92 89 77 81 83 78 72 71 65 58 52 52 55 51 56 69 65 59 58 61 63 60 64 55 65 64 55
30 31 28 40 49 51 58 64 71 76 86 94 95 95 98 97 89 90 83 77 75 77 77 76 69 55 50 49 49 52 49 55 65 65 62 61 62 60 61 61 63 66 71 64
30 29 26 33 51 51 58 65 74 78 84 90 98 98 99 96 88 83 76 73 72 75 79 75 70 57 55 52 49 51 50 56 61 65 61 60 63 61 62 64 72 69 76 60
28 26 22 26 49 55 60 70 76 76 81 85 97 96 97 90 82 73 67 70 72 73 80 76 73 62 60 60 59 57 59 68 68 66 64 63 61 62 62 64 68 77 67 67
29 18 20 25 43 55 61 67 71 75 83 86 83 90 93 89 83 79 81 83 81 80 81 73 71 68 66 64 66 69 67 71 66 67 60 61 64 62 60 67 73 73 71 74
29 23 20 32 43 54 58 61 67 78 76 82 86 87 88 86 84 83 80 77 77 80 81 74 69 67 67 66 66 70 68 70 72 68 62 59 66 58 68 74 77 75 81 76
26 28 21 32 41 53 58 58 62 67 73 79 78 76 79 82 82 87 83 77 73 73 72 72 68 67 67 66 65 64 68 67 73 74 66 71 52 60 71 78 78 83 84 83
29 23 27 31 37 50 58 61 64 70 70 71 75 80 79 76 71 70 70 71 73 71 67 67 71 71 68 69 65 65 64 68 75 73 75 59 61 76 80 83 84 86 86 86
34 24 27 32 40 45 60 65 64 65 67 66 72 76 76 76 72 73 73 67 63 67 71 76 75 72 71 74 76 70 73 73 77 77 79 73 75 76 77 83 92 84 85 86
39 30 21 29 36 45 57 67 68 69 69 66 70 67 72 71 71 75 71 66 65 66 71 76 78 76 71 77 74 79 81 80 78 78 76 72 71 72 80 86 80 81 82 84
43 36 27 20 31 40 56 67 71 71 70 66 67 68 73 72 72 74 71 68 69 71 72 71 75 77 75 73 73 76 78 79 81 77 81 84 74 79 78 73 77 79 79 83
45 40 33 23 22 36 47 69 75 77 76 73 71 69 72 76 76 74 74 71 69 73 74 75 79 79 80 79 81 76 79 73 77 74 77 72 78 70 73 74 75 76 77 80
46 42 35 28 22 25 42 67 76 79 82 79 76 73 74 73 73 77 76 74 71 74 76 79 81 82 81 82 81 77 73 73 75 78 81 80 74 74 74 78 74 76 82 82
49 44 35 28 25 21 37 60 79 85 86 83 80 80 82 80 77 78 79 75 78 76 76 76 76 80 77 78 76 80 78 77 77 77 81 80 78 78 80 74 69 75 82 83
51 43 33 28 25 25 37 63 80 84 91 89 88 84 82 83 83 81 81 78 77 77 78 75 77 76 80 79 77 76 70 70 75 78 81 83 83 79 76 69 70 77 83 86
51 40 29 29 28 33 44 68 80 86 93 91 86 87 86 85 81 80 78 76 78 79 78 77 77 80 84 80 78 72 71 72 75 74 72 75 78 76 73 69 68 75 84 86
43 28 37 28 29 33 49 86 96 96 95 92 87 86 88 86 85 83 80 79 79 82 85 86 90 88 84 83 80 75 73 80 78 75 72 75 75 74 69 66 63 69 80 89
36 37 32 33 30 40 72 97 99 95 92 89 90 89 87 91 93 92 88 88 91 92 94 95 96 92 88 84 79 79 76 76 77 73 71 72 71 69 66 64 63 67 77 85
41 34 31 31 35 62 88 98 95 92 93 89 86 87 89 94 96 97 98 97 97 96 97 97 96 94 92 88 90 86 81 81 81 79 75 71 71 69 70 70 69 69 82 87
41 37 36 41 63 85 91 97 93 91 85 80 77 79 86 92 96 96 97 98 98 98 98 98 98 98 95 91 86 82 78 77 78 79 76 75 74 75 74 72 73 84 91 91
41 40 50 65 80 88 92 93 93 87 84 77 72 76 82 88 95 96 97 98 98 98 98 98 98 98 96 92 87 79 73 72 73 74 76 79 78 78 76 79 85 91 93 92
40 41 57 74 81 87 90 91 89 83 81 75 74 79 83 87 93 98 98 98 98 98 98 98 98 99 92 87 85 82 83 84 81 78 74 77 79 79 80 83 88 92 93 94
45 49 68 76 82 87 84 84 76 72 72 74 74 79 83 90 95 98 98 98 98 98 98 98 98 94 89 87 88 87 95 92 88 86 85 86 84 83 87 89 92 95 96 96
55 51 67 75 83 78 82 80 74 73 75 76 75 78 85 90 95 94 94 95 97 98 98 98 97 92 88 84 87 92 97 97 97 95 96 96 94 91 90 93 96 98 97 96
65 54 57 62 68 77 77 77 79 79 78 75 77 81 84 90 92 90 90 91 94 96 98 97 91 88 89 87 85 90 98 99 98 97 96 97 96 96 96 95 96 96 90 89
67 64 59 53 57 64 72 77 79 81 80 81 82 84 87 86 88 87 85 84 84 90 92 88 89 87 85 84 84 85 91 98 98 97 95 96 96 94 95 97 98 96 94 90
76 67 55 53 50 48 58 65 75 80 82 84 83 82 81 86 85 81 79 80 82 84 84 84 87 87 88 87 84 81 82 82 81 82 89 94 92 92 93 92 96 98 96 97

GFSNW_prec_cthk_057.txt.gz
RH
33 30 34 30 46 46 52 58 72 78 83 84 87 95 91 95 93 88 86 82 82 82 76 70 69 71 65 62 62 63 60 65 74 66 60 57 56 57 56 62 59 67 64 47
32 26 28 28 48 47 52 62 68 74 84 86 84 87 86 86 86 85 82 80 80 81 79 70 69 69 61 57 57 61 57 60 69 68 61 60 61 61 59 60 61 66 64 50
32 25 21 24 52 50 53 60 68 72 85 93 86 83 87 85 84 79 75 77 76 77 79 69 70 64 57 54 55 57 52 55 56 59 55 60 65 62 61 61 68 63 62 58
30 28 26 23 48 53 50 54 65 74 84 90 90 83 80 77 81 75 71 75 75 79 84 80 75 63 56 55 56 56 54 59 60 60 62 62 62 60 63 61 60 62 64 67
29 28 27 24 45 52 54 56 67 71 72 81 83 84 82 80 76 73 75 76 77 79 81 79 74 60 58 56 57 55 54 68 68 67 62 62 63 62 61 61 61 73 73 73
33 25 27 27 37 54 56 59 69 72 71 75 76 82 81 80 78 80 80 81 82 83 84 75 69 65 64 62 64 66 66 72 73 71 63 59 59 54 55 59 68 74 80 73
38 25 28 29 29 54 58 56 62 67 73 72 76 77 77 80 78 80 79 79 81 85 82 77 73 72 72 68 69 68 71 71 69 71 67 70 50 52 61 73 76 78 79 79
40 30 25 32 32 43 54 55 58 62 66 71 71 76 76 77 78 79 79 75 72 73 78 78 76 74 72 73 70 69 65 65 71 74 76 61 58 68 76 83 82 83 82 83
43 36 25 28 33 35 53 59 59 60 65 63 70 73 76 75 71 71 72 70 71 72 73 72 73 74 73 77 76 69 68 70 74 75 77 69 62 73 76 83 91 84 84 85
48 41 34 25 30 33 44 60 64 65 64 63 67 70 74 75 72 74 69 66 65 66 73 79 83 77 73 78 76 79 79 78 77 73 72 63 65 74 80 87 85 84 86 85
53 48 40 33 25 31 31 52 65 64 65 62 63 68 71 71 70 72 68 65 65 68 69 71 74 75 76 78 75 76 75 77 79 79 78 73 70 80 86 79 79 82 82 80
55 54 48 40 33 26 28 38 63 66 66 64 64 63 66 72 74 74 71 68 64 66 69 68 73 75 79 79 80 75 77 69 73 72 71 64 78 82 73 73 75 77 77 82
56 55 52 47 38 31 24 30 55 71 73 70 69 63 66 71 74 77 72 70 67 67 69 75 77 77 78 80 79 75 73 71 74 75 76 83 84 83 78 77 78 73 77 82
55 53 53 50 40 32 26 23 43 76 82 80 76 76 74 74 75 74 74 76 74 74 76 74 72 75 74 77 75 77 74 73 72 71 75 82 82 83 81 79 73 71 78 82
54 53 52 49 41 32 28 24 38 80 89 86 82 79 81 85 82 77 78 79 79 78 78 75 75 73 73 74 76 75 68 68 70 73 71 80 84 80 80 77 71 70 80 85
53 53 54 49 46 38 34 30 39 83 94 93 89 87 88 86 84 83 82 82 83 81 78 74 71 69 74 78 73 70 69 70 69 68 69 74 79 78 79 76 70 68 72 85
51 51 58 47 37 34 33 42 82 95 96 95 93 90 87 87 87 86 83 82 81 79 77 74 76 82 82 80 75 73 70 69 71 74 76 76 77 80 78 75 69 66 66 76
45 53 51 50 41 34 37 80 98 98 98 98 95 91 87 89 88 86 87 86 82 80 81 81 86 90 90 83 78 78 77 73 72 76 79 76 76 78 76 73 67 65 64 70
45 60 54 39 34 43 75 98 98 99 99 97 92 92 89 91 92 94 93 90 88 89 91 92 96 95 91 84 82 81 81 77 73 71 77 78 75 75 75 71 66 68 68 68
53 60 49 35 49 79 95 99 98 99 98 93 89 87 86 89 95 95 97 95 97 95 95 96 95 94 93 91 90 85 83 80 78 73 72 72 73 72 72 70 73 72 72 77
65 61 48 49 77 86 98 99 98 95 92 84 80 76 75 81 90 96 97 98 98 97 97 98 96 95 96 93 92 87 84 79 76 73 73 73 74 74 74 74 75 74 83 89
67 62 50 71 82 91 95 96 93 89 85 83 80 75 78 84 91 97 99 98 98 98 98 98 95 95 94 92 88 88 88 84 83 82 80 79 72 74 77 79 79 81 86 93
70 69 56 72 85 92 91 89 87 84 82 83 78 78 80 83 92 98 98 98 98 98 98 98 98 97 93 89 84 89 94 94 92 87 85 83 81 82 82 80 81 84 91 93
80 74 64 72 84 82 85 83 84 84 84 81 75 78 80 83 88 94 95 95 95 98 98 97 97 96 93 88 87 91 95 98 98 97 97 96 96 95 89 88 89 92 95 96
79 77 64 64 73 81 81 85 87 87 86 79 78 78 81 83 85 87 89 89 91 93 95 97 95 91 90 90 90 92 98 97 98 98 98 99 99 97 95 94 95 97 98 96
74 77 67 51 53 63 75 82 83 86 89 88 82 82 81 79 82 83 81 82 80 86 87 89 89 91 90 90 89 92 93 97 98 99 98 98 98 97 97 96 98 95 94 91
81 80 73 66 55 51 54 69 76 82 83 85 85 84 80 81 80 79 75 76 77 77 79 82 85 89 88 85 87 91 91 91 93 89 87 88 94 97 98 95 98 98 98 95

GFSNW_prec_cthk_060.txt.gz
RH
36 29 20 23 42 45 52 61 69 82 73 74 84 87 84 90 87 84 77 81 80 77 77 79 73 68 66 64 68 69 64 70 79 76 71 69 66 64 57 58 58 64 64 45
35 28 21 22 38 47 51 60 68 80 74 73 81 86 83 82 80 79 72 78 77 74 74 74 69 66 66 66 64 64 63 69 77 76 66 64 63 59 56 56 59 65 59 41
36 27 25 22 42 47 48 55 67 81 82 74 74 81 79 74 76 74 75 78 78 76 69 64 68 69 65 61 60 62 59 62 60 63 58 62 66 64 61 60 66 62 60 50
38 27 27 20 41 49 50 55 66 77 87 78 75 73 76 76 75 73 74 78 78 78 76 67 72 72 62 60 61 60 59 62 59 58 61 63 63 63 64 62 59 61 54 61
41 28 25 27 35 48 51 61 67 71 81 81 80 78 81 80 75 73 79 81 81 76 78 74 77 64 58 56 59 60 59 64 63 64 62 65 66 63 62 61 61 59 62 72
44 31 24 29 31 49 51 61 68 70 70 79 81 83 82 82 79 79 80 78 80 84 84 76 67 60 59 59 59 61 60 63 72 71 68 65 63 57 56 58 56 60 79 72
45 35 25 29 30 46 54 57 63 69 72 73 79 82 84 82 81 86 86 85 83 85 84 80 72 67 67 65 67 63 68 71 73 71 66 69 50 51 54 59 66 74 75 75
49 40 31 25 32 34 51 54 57 62 66 72 71 79 80 80 79 77 79 82 85 88 83 81 79 79 74 72 71 70 66 69 71 71 68 60 58 63 66 72 80 81 80 80
53 46 39 29 28 33 42 53 56 57 61 60 68 73 77 75 73 75 75 74 75 79 80 78 75 74 70 75 76 71 69 68 67 71 67 69 57 63 71 80 93 85 84 82
58 49 46 39 30 30 31 47 56 60 60 57 63 71 75 76 72 75 72 70 73 74 78 80 84 80 75 78 76 78 77 74 72 69 70 60 57 69 76 94 88 85 85 83
58 54 50 48 41 32 27 32 49 60 61 59 60 66 72 73 72 70 69 65 65 68 69 72 78 78 78 79 76 77 75 76 77 75 76 72 58 75 89 86 81 79 81 79
59 57 55 52 50 43 36 25 33 51 62 60 61 61 64 69 72 74 71 68 63 64 66 66 68 71 75 78 81 78 78 71 69 69 70 60 67 79 84 80 74 78 75 76
68 58 57 54 55 52 47 38 31 33 55 62 61 58 59 63 69 74 76 71 68 63 65 69 70 68 73 78 77 74 72 71 72 72 70 73 70 84 85 79 78 76 74 77
77 63 57 56 55 57 55 48 33 38 48 68 68 67 66 66 66 71 79 76 74 70 69 70 68 68 69 72 72 75 74 73 71 69 69 72 78 85 88 82 80 77 75 80
74 65 58 56 60 58 56 47 34 30 50 71 77 72 71 71 70 69 78 79 76 77 74 75 74 70 69 68 67 70 68 67 68 69 65 68 77 86 85 82 79 77 72 79
72 61 56 53 57 60 52 43 32 30 53 77 89 85 82 81 82 82 82 81 79 80 79 76 70 67 67 68 66 61 64 68 68 68 68 68 70 79 80 77 77 76 70 73
66 54 48 62 53 50 48 41 48 36 73 90 96 92 85 88 89 88 87 84 83 80 78 74 72 71 75 71 67 65 68 69 68 68 67 70 72 76 80 79 78 77 71 67
61 43 55 52 51 56 40 40 49 80 98 98 98 96 91 90 92 91 86 84 82 80 77 75 75 76 78 74 72 74 75 72 69 70 69 72 77 78 78 81 80 77 72 69
46 44 58 49 43 39 51 77 96 98 98 98 98 99 95 94 94 91 91 88 87 83 80 79 84 83 81 82 86 84 81 77 71 70 71 72 74 76 78 76 77 77 71 69
42 53 52 51 51 68 88 98 98 98 98 98 98 95 96 96 96 96 95 95 93 87 86 87 88 85 90 90 88 85 84 82 79 75 72 70 71 72 74 74 76 74 71 71
56 64 55 64 69 86 96 98 98 98 97 97 94 90 90 87 90 93 96 98 98 96 95 98 93 91 91 90 91 91 88 85 80 78 75 72 70 72 73 72 73 72 71 73
62 66 63 71 78 89 95 95 96 96 97 96 92 89 81 81 83 92 98 98 98 96 98 98 93 93 91 89 89 90 89 90 89 86 83 78 73 73 72 70 71 73 76 74
74 72 68 78 83 86 93 93 93 95 94 92 89 87 84 84 87 95 98 98 98 98 98 96 96 97 97 93 89 87 91 93 92 91 91 88 86 81 76 76 79 80 78 79
81 78 79 82 89 79 86 89 93 93 94 91 89 88 84 83 87 88 92 96 96 96 97 94 97 97 95 92 91 93 95 93 94 96 97 95 92 89 88 87 86 83 82 86
82 81 80 81 80 83 78 86 92 94 93 91 88 88 84 83 85 84 85 86 86 90 91 92 94 92 92 93 94 97 97 97 97 97 98 99 99 99 98 95 91 89 91 96
82 79 80 77 81 73 78 86 89 93 94 93 91 89 88 82 82 80 79 79 76 81 86 86 88 89 90 89 93 97 98 97 98 98 98 98 99 99 99 98 98 97 98 97
85 83 81 79 73 59 55 60 76 86 91 93 93 89 85 84 82 76 72 70 71 75 76 79 84 85 88 86 85 85 89 93 97 97 96 94 94 95 97 97 97 98 98 96

GFSNW_prec_cthk_063.txt.gz
RH
46 30 26 25 31 41 41 55 69 64 74 74 71 78 80 86 82 81 71 69 74 75 76 77 77 75 75 75 72 79 74 76 88 85 78 76 71 72 66 65 62 59 58 37
46 32 25 24 35 41 42 52 63 65 62 79 76 74 75 75 74 80 71 68 67 72 77 80 76 71 68 64 66 68 62 68 76 75 70 70 74 71 64 58 56 59 50 37
47 34 24 21 35 41 44 52 60 70 65 71 78 76 76 72 69 73 75 73 70 73 77 72 69 68 65 66 65 62 59 62 64 68 61 66 71 67 62 57 59 56 56 48
49 36 24 22 30 42 45 54 63 77 71 68 72 77 75 76 74 70 73 76 73 63 65 65 70 68 67 67 61 60 59 66 62 58 61 62 62 62 60 60 58 57 51 52
47 40 27 23 27 42 46 59 65 71 78 77 77 78 81 77 78 77 79 80 78 71 67 66 70 65 62 59 60 59 61 68 60 60 59 62 65 62 63 60 58 57 55 56
48 42 33 26 28 40 47 58 64 66 66 75 78 81 81 79 75 79 80 80 80 81 79 70 70 63 57 55 54 59 60 63 60 68 67 68 69 62 60 60 60 58 63 62
52 47 40 29 29 33 50 53 62 66 68 70 77 83 82 82 82 83 83 81 81 85 83 77 73 63 63 60 59 57 60 60 68 74 69 74 54 55 56 56 55 58 65 69
59 53 46 39 28 30 41 51 55 60 64 66 67 77 82 81 79 79 82 84 87 87 86 82 76 72 67 69 71 64 62 65 72 72 72 59 65 66 66 67 73 75 79 77
58 58 52 46 40 27 33 45 51 56 59 61 66 69 76 79 77 76 75 78 82 83 83 81 75 73 69 73 74 71 69 67 68 73 67 64 61 66 68 73 90 85 83 82
64 60 55 52 49 41 27 32 44 52 55 55 62 65 72 77 77 78 76 75 76 78 81 83 83 76 72 75 74 76 76 76 70 71 70 59 58 65 67 86 89 83 84 83
72 62 58 55 54 51 42 34 32 40 49 54 54 58 66 73 76 77 74 69 68 71 76 78 82 81 79 78 74 75 75 75 74 74 76 68 54 68 80 85 84 83 81 79
71 73 66 58 54 55 53 48 40 35 34 42 56 55 58 65 71 76 76 72 67 63 67 67 70 74 78 80 79 78 79 70 67 67 68 61 62 66 75 85 85 82 77 76
82 84 82 66 55 56 59 56 53 45 43 27 36 52 55 57 65 70 75 75 72 66 63 65 67 63 69 75 74 74 73 72 72 69 67 67 66 67 76 87 86 78 77 74
79 83 80 74 63 59 64 64 61 60 56 51 46 55 61 61 64 67 70 77 78 72 66 66 66 64 66 69 68 71 70 71 71 69 67 67 71 74 82 91 86 83 78 73
77 83 79 71 67 64 64 68 65 62 58 66 60 54 60 66 69 71 71 75 79 79 77 72 71 69 69 70 68 66 59 61 66 67 61 62 65 71 76 84 83 80 79 73
79 83 75 61 53 56 64 58 58 54 49 49 64 69 65 69 77 78 72 73 79 80 80 76 72 73 70 68 65 55 54 58 62 65 67 67 69 70 74 83 83 81 80 77
77 71 68 48 51 62 64 51 58 52 44 45 66 77 76 82 85 86 87 81 81 81 81 79 75 75 76 70 63 56 59 61 62 65 66 65 65 69 73 82 84 81 79 80
77 70 50 52 59 56 57 50 49 46 44 68 87 90 90 90 94 94 92 92 90 85 82 78 76 76 74 68 60 63 67 68 67 68 67 66 66 68 73 77 79 81 81 81
78 65 49 54 48 44 53 56 56 67 89 97 98 99 97 98 98 98 99 93 93 85 82 79 77 74 71 65 69 71 77 80 77 73 71 67 67 68 72 75 79 78 80 81
81 61 60 55 59 66 78 78 89 94 96 98 97 98 99 98 98 98 94 96 91 85 82 80 79 73 75 75 80 83 85 84 82 80 75 71 69 68 65 69 74 77 77 78
80 72 67 60 73 81 89 91 94 94 96 96 96 97 98 98 98 97 95 94 96 93 92 91 84 82 84 84 85 86 87 86 86 82 78 74 73 71 66 66 69 72 75 76
73 78 75 68 78 85 93 93 92 91 93 96 98 98 91 94 91 93 92 96 98 95 98 97 90 89 90 90 88 86 88 88 89 89 88 84 80 77 71 67 71 74 73 74
74 81 76 72 81 86 89 91 91 94 95 97 98 97 93 87 86 90 96 98 98 98 98 96 92 96 96 93 92 90 91 92 91 92 92 89 88 85 79 74 72 71 73 78
82 82 78 78 85 86 86 86 94 96 97 98 96 95 92 86 89 86 91 93 96 96 96 94 95 97 97 95 95 98 98 96 94 93 93 94 94 92 89 84 81 82 83 83
82 84 80 78 82 90 95 87 94 97 97 98 96 92 91 90 87 86 86 88 84 85 90 91 94 91 92 96 98 98 97 97 97 96 96 97 97 96 97 95 94 92 91 89
72 80 78 78 81 84 91 90 87 94 97 98 98 97 94 90 89 85 81 80 76 76 82 83 86 86 86 90 95 97 97 97 98 98 98 98 98 98 99 99 99 99 97 95
66 75 84 80 75 77 80 79 72 84 93 98 99 97 90 91 89 84 79 76 72 72 71 72 78 82 85 83 84 86 86 85 84 88 95 98 97 96 97 98 98 98 99 97

GFSNW_prec_cthk_066.txt.gz
RH
48 41 28 26 31 33 39 49 62 59 63 68 67 74 76 76 79 81 75 73 76 74 71 66 67 73 70 75 74 76 74 78 88 83 79 78 75 71 64 64 61 52 48 32
49 41 28 25 31 34 39 49 58 55 63 70 69 67 69 71 67 63 62 64 69 71 69 70 66 71 73 73 72 73 70 73 81 82 74 72 74 69 64 59 58 60 43 35
46 41 30 22 29 35 40 49 63 59 60 69 69 71 68 69 71 68 65 62 63 66 69 67 68 67 66 64 66 64 59 60 66 61 60 62 73 67 62 67 63 49 44 38
50 45 35 23 28 37 40 52 61 66 72 63 70 68 69 64 70 73 72 69 67 67 68 64 65 63 62 63 63 62 59 65 62 61 63 64 65 66 63 63 53 54 41 43
50 51 43 28 28 36 42 54 59 62 64 72 73 73 74 71 72 73 75 75 71 59 59 59 61 62 62 62 62 59 61 69 64 67 61 65 67 63 62 61 56 52 50 48
53 55 52 41 30 34 42 51 58 59 59 64 71 77 76 75 74 76 75 76 76 72 67 64 64 63 59 56 54 58 60 61 58 61 60 62 60 56 56 56 54 52 55 48
54 58 58 53 41 33 43 47 55 59 58 59 66 72 78 78 79 79 80 78 78 81 79 72 72 69 65 57 54 53 56 56 56 62 60 63 52 53 53 53 51 51 50 52
52 59 57 57 53 43 37 44 49 56 58 58 61 67 72 72 75 75 80 82 81 82 83 78 74 67 63 64 61 57 55 55 62 67 63 56 63 61 58 59 63 53 60 66
46 55 57 57 59 53 47 41 45 50 57 56 59 62 68 73 72 74 74 79 84 84 85 79 74 70 64 66 69 66 60 60 62 69 66 57 59 68 65 67 79 71 73 76
48 56 62 61 57 58 51 51 42 42 49 50 55 61 64 69 73 76 73 76 77 81 84 80 77 70 65 64 63 64 66 66 66 63 62 51 56 60 63 76 79 76 82 81
53 58 71 75 61 58 57 54 53 46 38 32 48 54 60 65 71 76 75 72 70 75 78 80 80 73 71 69 66 67 65 67 67 65 63 62 52 67 73 79 79 84 86 84
56 61 76 80 86 70 60 60 57 56 51 36 24 46 50 56 64 72 77 75 69 64 65 69 73 72 74 73 72 71 71 63 62 60 60 61 61 63 67 76 84 87 87 82
69 67 77 85 82 76 69 66 61 62 62 56 47 26 35 48 56 63 69 74 75 70 65 64 63 59 61 66 68 70 71 70 68 68 64 62 63 64 67 74 85 87 85 76
75 73 79 85 88 77 76 74 70 67 66 70 62 59 50 48 53 58 65 71 73 75 70 64 61 60 61 61 63 65 66 69 69 68 66 67 66 69 73 77 83 90 82 78
71 79 82 88 88 83 74 69 68 70 71 70 66 60 60 60 59 59 66 69 73 74 75 71 68 65 63 65 65 61 55 55 58 60 61 62 63 68 69 73 76 89 83 79
70 81 88 85 81 73 60 57 65 66 62 58 51 51 63 69 74 73 69 72 75 77 76 75 74 68 66 66 62 54 53 53 55 59 64 65 66 66 67 68 74 82 83 80
74 84 88 87 76 59 60 56 53 53 53 50 50 52 71 71 74 82 76 80 79 77 77 76 75 75 73 67 60 58 56 54 55 57 60 65 67 67 65 69 72 83 85 81
87 88 89 85 62 65 59 56 55 54 52 49 63 70 75 76 76 82 84 92 88 86 79 78 78 75 74 66 56 59 59 60 59 61 63 64 65 65 64 66 70 74 81 83
91 90 88 76 70 61 59 56 58 57 57 68 82 89 94 90 93 91 97 94 94 91 87 84 78 74 71 61 62 62 63 65 66 69 70 67 68 67 65 66 68 70 76 77
94 92 91 76 71 73 76 78 75 80 84 92 95 98 99 98 98 99 99 97 98 97 92 87 82 72 67 65 66 67 69 70 75 78 79 78 74 72 68 65 65 68 73 77
97 95 87 78 78 83 84 86 86 90 91 90 91 95 98 98 99 98 97 97 96 93 88 89 82 75 75 73 74 74 75 77 81 83 82 79 76 72 70 68 66 63 65 69
97 95 88 81 80 86 86 91 89 90 89 90 96 97 98 98 99 96 95 95 94 92 95 96 89 84 82 82 82 81 84 85 85 87 87 85 83 80 77 75 72 67 65 68
94 77 85 86 88 85 82 88 91 93 94 96 98 99 99 97 93 90 93 93 97 98 98 94 90 93 97 95 94 93 91 93 91 88 87 89 89 86 84 81 76 72 68 71
94 89 90 84 85 80 81 87 89 93 98 98 99 98 98 96 92 92 96 95 97 97 96 95 97 98 98 97 98 98 98 95 94 93 93 93 93 93 93 89 84 80 76 73
94 94 89 86 79 83 86 88 94 91 98 98 98 98 97 97 91 91 89 89 86 85 88 91 94 95 96 98 98 98 98 97 96 98 98 97 96 97 97 96 95 93 90 87
79 84 83 81 80 78 80 90 97 96 93 97 98 97 98 94 90 89 85 83 78 76 79 83 89 85 87 95 98 98 96 91 92 95 98 98 98 98 98 99 98 98 96 95
72 77 80 81 72 68 78 88 92 95 91 93 98 97 94 94 93 89 88 84 75 74 72 69 69 70 75 80 84 86 85 86 84 82 83 85 92 96 98 98 98 98 98 98

GFSNW_prec_cthk_069.txt.gz
RH
37 33 31 22 25 27 33 44 61 59 57 63 67 64 66 68 68 72 72 66 65 66 64 61 60 62 62 71 70 70 71 74 83 80 76 77 75 74 72 75 70 59 61 44
38 35 31 25 28 31 32 46 53 57 61 66 65 65 63 60 59 61 64 65 65 63 62 63 64 62 63 66 72 70 66 70 81 77 73 73 76 73 67 63 67 62 49 41
41 36 37 30 30 34 34 47 57 60 62 66 67 66 68 65 63 58 54 59 61 60 60 60 60 64 67 69 67 68 65 64 70 70 68 66 76 69 66 72 70 55 47 40
38 39 37 39 31 36 41 46 56 61 67 70 71 65 61 62 69 70 66 64 64 63 63 62 62 63 63 62 61 61 61 63 61 60 59 60 61 63 63 69 62 65 49 43
31 36 41 44 38 36 45 50 57 61 61 65 68 71 70 66 67 72 71 70 61 62 64 63 61 56 57 57 60 62 60 67 61 65 57 58 63 60 61 61 58 54 49 46
34 35 38 45 46 41 48 50 53 58 56 58 62 71 73 72 70 70 70 72 71 66 61 60 57 59 60 59 61 61 62 63 63 65 59 62 65 58 60 60 55 51 52 46
35 36 36 36 48 52 51 53 52 56 57 56 59 66 71 74 75 76 74 73 73 75 73 64 63 63 62 60 54 53 57 59 60 56 58 67 55 53 53 54 54 53 52 50
31 36 46 49 45 45 54 52 54 54 56 57 57 61 66 68 71 74 78 77 76 77 80 79 73 73 70 65 58 55 54 57 60 58 58 54 58 59 57 58 60 50 52 51
31 35 45 54 53 53 55 56 53 54 55 52 57 58 62 68 68 70 73 78 82 81 83 81 77 76 63 64 63 58 55 55 56 64 67 58 64 65 63 64 71 59 58 62
28 26 35 54 65 59 56 58 53 58 53 45 50 56 60 66 68 71 70 75 78 80 83 82 76 69 62 62 59 65 64 63 62 64 63 52 50 61 63 74 78 68 68 72
32 30 29 45 65 66 73 74 63 57 59 44 34 40 54 62 66 69 76 74 71 77 81 82 78 72 65 64 59 59 61 60 61 61 61 59 50 59 63 73 72 74 75 80
35 32 33 34 58 73 68 78 78 67 64 53 44 34 28 51 62 66 71 77 74 69 69 73 76 73 71 67 68 64 64 58 60 57 59 55 52 60 61 66 75 79 83 86
36 36 40 44 48 78 73 78 84 84 77 64 62 57 47 26 45 61 64 72 77 74 71 68 67 65 66 68 65 66 66 66 64 64 59 58 60 61 62 63 69 78 83 86
42 47 45 50 59 81 82 86 90 81 77 77 70 68 69 59 46 51 60 67 75 76 74 72 66 59 56 57 58 62 66 67 66 65 63 64 64 63 66 68 70 76 85 88
52 54 57 59 68 82 90 89 79 74 75 72 69 62 55 64 64 64 59 62 71 76 73 69 69 63 58 58 58 53 53 54 60 60 58 60 64 65 66 68 69 71 76 89
62 59 72 74 79 90 95 89 73 72 71 67 56 46 45 59 70 75 71 67 68 73 81 70 69 70 64 62 58 53 51 51 50 51 53 55 60 61 62 61 63 68 73 85
60 74 87 87 88 96 96 82 70 62 57 57 49 42 42 50 65 74 82 86 84 80 76 73 74 75 71 64 58 56 54 52 52 52 52 51 54 59 61 62 62 66 72 80
91 96 98 95 96 95 77 71 70 65 59 54 53 58 65 70 73 73 75 86 88 88 82 78 74 75 75 65 56 56 55 55 55 55 55 56 56 56 59 61 61 63 67 71
84 88 98 97 95 91 83 81 71 63 60 59 69 78 82 89 87 76 89 84 88 88 86 79 81 73 69 60 59 61 60 57 57 59 61 60 60 61 62 64 63 63 67 69
98 98 98 97 94 80 87 88 82 76 68 80 87 94 98 98 92 82 97 87 93 99 94 93 86 72 67 68 66 64 63 60 60 63 64 66 69 73 73 70 68 67 65 68
98 98 98 94 90 92 90 91 84 86 88 91 89 92 97 97 98 99 94 98 97 96 92 96 85 76 78 74 73 70 69 68 68 68 69 72 74 76 75 73 72 69 66 65
97 98 96 96 92 91 88 88 87 85 88 91 95 98 99 98 99 99 98 98 98 97 93 92 84 81 83 82 80 77 75 72 71 74 76 79 81 80 80 80 77 73 70 69
97 96 97 97 92 87 91 85 88 89 90 96 98 98 99 98 98 98 98 97 96 94 96 91 86 90 91 89 87 85 84 83 84 85 84 84 83 83 84 85 83 79 74 71
97 94 96 95 91 85 83 82 85 92 91 98 98 98 98 98 97 97 97 93 97 98 96 93 98 99 98 98 98 98 98 95 93 93 93 91 90 89 90 91 90 87 82 77
98 95 95 89 86 87 85 82 80 85 92 95 98 98 99 98 98 98 95 98 95 90 88 91 94 97 96 98 98 98 98 96 96 96 95 96 97 96 96 97 96 95 92 89
92 91 92 85 82 77 80 84 85 89 96 95 97 98 98 97 96 96 91 89 84 83 82 83 88 91 91 94 96 98 96 94 95 93 91 89 94 97 98 98 98 98 97 95
77 82 81 80 78 69 68 74 81 87 94 96 97 98 96 95 95 93 91 87 86 82 76 73 71 68 71 78 78 86 88 85 83 82 81 79 75 78 82 95 98 98 98 97

GFSNW_prec_cthk_075.txt.gz
RH
17 15 14 15 17 22 30 38 47 49 51 54 60 64 63 56 62 64 65 72 66 64 61 66 64 70 77 74 75 79 77 81 86 90 89 88 88 90 84 90 92 85 83 64
15 14 14 15 16 22 31 41 49 51 49 60 63 61 62 65 60 59 63 66 63 60 59 64 60 61 68 67 69 71 73 85 91 91 87 84 82 84 83 82 83 83 85 67
15 13 12 11 14 23 30 41 52 54 51 53 63 67 61 62 66 67 63 61 62 59 57 58 59 59 65 67 66 64 62 68 71 76 70 76 81 77 82 82 86 80 72 63
15 14 12 13 12 13 24 37 51 62 64 57 57 62 64 63 64 71 70 63 64 63 60 62 60 57 59 59 61 61 61 66 61 59 62 65 69 73 77 77 75 76 68 65
16 15 13 12 10 11 13 24 37 51 69 63 53 58 63 68 67 67 73 75 71 65 66 65 63 55 56 58 57 56 56 64 57 60 54 56 59 62 67 72 72 70 68 61
17 16 14 14 14 12 12 16 22 27 48 68 61 58 62 67 71 73 73 71 72 73 68 61 59 57 57 58 54 53 55 61 64 68 58 59 64 58 59 62 61 64 67 60
21 19 17 15 16 15 18 19 23 28 30 43 70 60 58 64 68 71 75 76 72 70 72 70 62 56 55 55 54 56 61 63 63 69 61 71 55 54 56 57 56 57 57 58
22 23 22 17 16 18 21 23 25 28 27 27 45 71 60 60 66 69 70 76 78 73 76 78 75 70 64 62 62 61 61 59 63 68 68 57 58 58 58 60 59 56 56 55
23 23 24 21 21 19 21 25 28 34 38 32 41 55 62 61 64 68 68 76 79 79 81 84 81 81 68 69 64 64 63 59 62 69 70 66 64 61 58 61 68 58 54 55
23 25 28 27 29 26 25 29 37 42 47 41 53 55 71 55 64 70 70 75 82 79 82 91 88 82 74 78 72 73 64 62 66 68 68 55 57 62 64 77 70 62 53 55
27 29 30 34 37 35 33 37 44 51 52 55 65 66 69 68 50 62 73 70 83 82 82 84 86 88 76 74 69 69 63 66 67 61 61 63 57 64 69 70 73 71 69 63
29 32 35 38 40 42 47 53 57 66 62 59 78 83 80 81 62 50 60 72 81 88 85 79 82 86 85 80 74 67 68 61 62 58 58 53 57 60 65 69 69 77 76 74
32 41 40 43 53 57 65 66 64 74 67 65 78 78 75 82 74 61 51 55 72 84 88 88 83 82 80 82 78 72 68 66 66 63 60 59 59 61 63 65 64 67 72 79
21 31 42 52 50 69 73 70 71 86 73 78 79 75 78 81 81 76 57 49 58 73 80 87 83 76 73 74 73 75 73 72 73 68 66 66 64 65 65 65 66 67 70 76
8 14 32 49 60 74 79 75 73 86 85 92 85 77 62 68 72 78 81 65 55 67 72 78 81 75 72 70 67 63 62 68 74 76 69 68 70 69 68 68 69 69 69 69
14 15 26 43 74 85 79 71 78 83 94 92 85 58 46 61 59 71 81 88 66 64 68 75 72 74 74 71 68 57 54 54 54 59 62 62 63 65 65 63 62 63 64 66
25 33 37 69 79 84 78 80 88 95 97 93 74 54 55 55 53 48 62 82 91 76 77 66 70 71 78 76 70 59 58 55 55 55 55 56 57 55 53 54 55 57 59 63
38 50 61 69 71 72 82 86 91 95 94 88 63 56 68 76 75 61 52 72 80 90 92 91 78 66 71 72 62 54 59 60 59 59 58 56 56 56 56 57 55 54 54 55
40 49 58 68 77 84 89 84 93 96 85 76 76 80 82 79 82 83 76 69 77 75 80 84 90 86 74 58 55 58 60 63 62 62 61 60 58 56 55 56 56 55 55 56
44 52 60 66 74 82 80 85 95 89 88 89 85 82 90 91 93 92 94 92 86 81 76 84 93 87 79 79 77 73 63 63 64 65 66 65 63 62 60 59 60 60 60 61
55 56 63 70 77 85 89 92 92 90 92 93 95 97 98 98 98 98 98 99 97 90 88 84 81 75 74 74 75 75 76 69 67 68 68 68 68 67 63 60 61 62 63 67
56 60 65 74 77 83 88 92 90 90 93 94 98 98 98 98 98 96 98 98 98 98 92 92 87 87 85 82 80 79 79 79 78 76 74 72 70 69 67 66 66 66 66 68
60 64 74 77 80 85 90 88 91 91 94 96 97 97 98 98 98 98 99 99 98 98 98 95 88 89 90 87 87 86 87 88 88 87 82 78 76 74 72 71 70 68 69 71
67 68 75 83 87 88 82 82 88 90 89 93 92 94 94 98 98 98 98 98 97 97 98 95 96 98 95 94 96 96 97 97 95 92 90 88 85 83 82 79 77 76 76 77
73 72 74 81 79 86 84 84 83 82 81 78 79 87 94 93 95 97 98 98 97 97 99 98 98 98 98 97 98 98 98 98 98 98 94 91 87 86 88 88 92 94 92 91
82 79 76 78 81 81 81 75 74 73 77 81 82 82 86 93 92 92 95 97 98 98 98 97 93 94 93 95 97 98 98 98 98 94 89 85 81 77 76 76 78 80 93 98
78 75 80 83 83 78 75 74 71 67 69 74 80 84 84 86 92 91 93 97 98 98 97 93 89 85 87 88 90 93 93 92 87 85 84 80 76 72 68 64 64 64 68 73

GFSNW_prec_cthk_081.txt.gz
RH
22 21 19 17 15 14 17 21 27 27 28 32 39 43 47 53 56 59 64 69 68 67 66 75 89 92 94 88 88 88 83 88 94 90 86 85 83 79 77 78 76 71 76 58
22 21 19 17 15 14 14 20 23 25 26 30 31 32 39 49 51 54 60 65 62 61 63 67 77 84 82 83 83 87 83 85 94 92 86 85 81 73 68 70 72 76 76 58
24 22 20 18 16 15 15 19 25 22 26 31 36 41 40 43 54 54 58 62 64 62 61 64 70 82 91 84 79 79 74 77 69 68 59 64 69 66 68 73 72 65 65 58
25 23 22 18 16 15 15 18 27 28 26 29 39 44 44 52 60 69 63 68 71 68 68 65 67 76 80 80 81 78 75 82 68 61 63 72 74 74 78 77 71 74 65 64
26 24 21 19 17 15 15 17 22 22 25 33 40 46 51 57 59 72 81 79 78 78 70 68 70 67 72 76 77 78 78 79 79 81 75 74 75 82 84 83 80 75 69 67
27 24 22 21 20 18 17 20 22 26 26 30 34 43 45 48 55 72 85 86 87 80 78 70 67 70 67 65 64 66 70 73 68 67 62 61 62 60 66 67 68 70 72 66
28 26 25 25 25 20 23 25 26 30 30 34 36 39 45 47 42 57 86 97 84 86 79 76 75 71 68 63 62 64 65 65 63 72 66 68 45 52 53 52 53 58 59 61
30 31 30 29 24 26 31 33 35 39 44 48 47 49 57 58 60 54 81 94 91 88 88 85 80 81 70 64 62 62 63 66 69 71 72 57 49 53 58 59 55 53 51 52
32 33 37 37 33 32 36 39 43 44 48 51 52 57 72 65 65 54 90 96 98 89 92 98 89 93 79 73 66 64 65 67 72 77 75 66 58 60 57 59 64 56 53 51
31 37 37 36 36 38 42 45 49 51 52 56 59 68 67 64 77 70 83 96 97 91 91 98 98 90 80 82 72 74 73 75 76 79 75 59 53 60 61 69 65 64 60 54
36 31 38 37 41 43 43 53 53 53 57 59 58 68 66 69 77 89 85 85 98 98 94 97 96 95 87 83 79 78 75 78 80 77 71 64 53 60 61 67 70 70 62 60
27 26 26 32 31 38 42 56 55 56 54 56 57 62 63 65 79 93 89 86 92 92 93 93 94 94 93 88 87 79 79 71 73 66 62 54 61 59 60 69 73 76 77 70
23 19 16 18 22 29 35 50 55 58 54 54 57 57 57 64 72 79 91 84 85 90 90 96 96 94 92 94 89 83 77 74 70 66 63 61 60 60 65 72 80 77 78 83
24 19 19 14 16 21 38 47 54 59 57 60 59 58 66 60 59 69 78 86 84 79 89 92 95 98 88 87 84 86 82 78 74 69 67 66 64 65 68 73 76 77 77 74
24 23 20 20 22 30 41 46 52 55 60 67 61 56 61 73 65 66 76 89 86 74 73 79 90 89 88 83 81 82 82 80 78 74 69 71 69 69 71 72 75 77 75 77
25 24 25 24 26 34 41 45 50 56 65 70 66 65 71 76 71 61 66 83 85 77 68 63 61 75 81 82 80 71 73 73 74 72 69 72 74 75 75 76 75 73 69 66
25 25 25 27 31 39 42 45 54 62 67 69 61 65 72 76 78 63 59 70 86 88 82 72 61 65 66 76 77 70 71 73 73 71 72 75 74 74 75 74 71 66 62 60
27 28 29 29 34 38 42 46 56 61 67 69 70 68 68 72 76 77 64 62 66 84 89 88 87 71 70 71 57 62 70 70 67 66 67 67 67 68 67 65 63 60 58 55
34 30 28 31 35 38 44 50 57 64 69 73 75 72 72 66 71 77 75 80 79 72 76 84 86 91 82 63 53 50 57 64 65 63 64 66 65 65 65 64 62 60 57 56
33 30 32 37 39 41 46 53 61 69 72 76 77 73 78 77 79 82 81 84 87 87 80 78 82 81 76 80 85 78 70 69 70 69 69 67 67 67 67 66 65 63 62 60
30 32 36 39 42 44 49 58 66 70 72 76 77 76 81 88 85 86 89 92 92 92 89 85 85 84 77 78 77 81 83 76 71 70 68 70 71 69 68 68 67 67 65 63
30 33 38 41 43 46 52 62 66 72 76 79 81 78 83 88 87 90 95 98 98 97 98 95 90 86 87 86 85 87 86 85 86 84 79 77 76 75 73 69 67 66 66 65
34 37 40 41 45 50 55 65 70 75 80 81 78 77 80 88 88 91 96 98 98 98 99 98 98 98 98 96 94 91 89 89 90 91 87 84 82 82 82 80 79 76 71 68
36 38 43 43 48 49 53 59 74 80 81 77 72 75 77 83 87 93 96 96 98 98 98 96 98 97 97 98 95 94 94 93 93 93 92 88 84 80 77 76 74 71 68 69
39 41 43 46 47 51 58 61 73 82 81 77 74 71 76 76 80 91 95 97 98 98 98 98 98 98 98 98 95 97 98 98 98 99 98 97 94 85 76 70 67 64 65 63
46 46 44 48 52 55 61 67 73 77 78 76 76 76 78 73 74 77 87 97 97 98 98 98 98 98 98 98 98 98 98 98 98 98 96 90 84 80 77 76 72 68 64 60
50 46 46 50 55 56 61 68 72 76 78 78 79 74 74 71 72 72 74 80 92 98 98 98 98 96 97 97 97 98 98 97 94 88 86 82 79 76 71 65 59 56 55 52

GFSNW_prec_cthk_084.txt.gz
RH
25 23 22 22 20 17 17 22 26 26 27 29 33 34 35 40 50 65 85 88 88 79 72 84 97 97 96 95 76 87 87 89 94 97 91 94 85 81 78 79 79 76 74 59
24 23 22 23 20 17 17 20 21 25 26 32 34 34 36 42 53 59 74 89 90 85 76 78 86 93 87 91 93 87 83 88 93 96 90 88 87 81 78 75 75 75 72 57
25 23 24 23 21 18 17 19 22 20 25 35 39 45 40 45 44 53 67 87 90 88 79 76 85 98 87 88 92 91 82 86 83 82 71 72 82 80 77 74 76 65 61 51
26 24 26 23 21 20 18 17 26 27 26 27 35 44 46 49 53 56 65 81 97 93 88 82 77 89 94 89 84 89 88 88 80 77 75 77 77 75 74 72 66 65 53 54
27 25 26 24 22 22 18 21 22 26 31 31 36 44 58 54 58 59 74 86 99 95 94 88 80 82 87 87 87 81 80 84 78 77 69 67 62 67 68 63 57 64 61 56
27 28 27 27 26 26 25 27 28 33 34 37 41 48 47 51 55 40 60 82 98 95 94 89 85 78 81 85 85 83 80 86 78 75 70 70 69 67 72 77 75 70 70 58
29 29 32 32 32 30 30 31 34 38 38 43 44 48 51 59 61 55 46 66 91 98 98 94 88 83 77 72 75 79 78 77 76 82 71 69 50 53 52 57 61 63 60 58
30 33 41 36 37 36 33 35 40 43 45 46 45 49 56 53 53 57 50 69 94 98 97 93 91 90 78 75 69 67 70 70 75 72 69 56 52 53 55 57 53 52 49 48
34 39 44 39 39 39 37 40 44 43 46 47 46 50 53 53 63 61 50 67 87 99 93 99 95 95 87 84 72 69 70 72 72 76 72 64 57 61 58 57 62 57 56 54
37 47 41 40 41 41 42 43 48 44 48 45 49 53 56 57 69 69 65 76 95 98 91 97 98 91 82 87 79 75 73 73 75 74 78 67 55 55 61 68 63 63 61 56
38 50 41 41 40 37 43 44 48 45 46 47 47 51 51 56 68 80 77 86 94 96 94 96 98 97 89 86 84 83 77 78 79 78 81 76 56 58 62 64 69 69 67 63
44 39 37 27 28 32 35 37 41 43 46 45 44 44 48 53 67 78 83 89 92 96 96 96 97 96 99 89 89 85 85 78 77 74 73 63 62 62 63 64 69 74 76 69
48 39 26 23 25 25 26 33 39 42 45 41 41 44 51 52 49 66 76 79 80 90 87 88 98 95 93 97 93 86 83 79 79 76 72 71 67 64 65 68 73 74 76 80
40 39 27 26 24 25 26 34 38 43 47 48 45 46 51 58 55 53 66 72 75 81 78 77 87 96 92 91 86 87 84 85 82 78 72 70 68 67 71 72 73 75 80 80
43 34 32 30 28 31 31 36 37 43 46 50 46 48 58 61 62 51 59 70 78 82 78 78 85 92 91 88 86 83 81 82 84 80 73 69 72 72 73 73 75 77 79 79
44 37 34 31 29 30 29 35 34 41 47 51 46 49 54 59 69 55 55 69 79 86 84 76 72 66 81 84 83 74 71 75 78 81 78 70 71 76 78 78 80 79 79 75
44 41 33 34 29 26 29 33 38 43 48 50 48 50 49 59 68 70 53 54 66 78 83 82 69 67 68 72 68 66 68 72 77 79 79 79 77 75 77 80 80 79 75 70
48 41 36 37 27 29 31 34 37 42 49 53 58 57 56 61 68 72 71 63 57 66 78 84 82 74 68 70 49 52 56 63 70 74 76 78 78 79 80 79 79 76 73 70
49 38 44 31 27 30 33 35 41 46 51 57 64 68 68 67 71 75 77 71 75 69 72 75 77 87 86 76 74 60 52 54 67 71 73 72 73 74 74 76 76 74 70 66
46 45 41 30 32 34 34 39 43 48 57 64 69 70 70 75 78 80 80 86 84 81 78 80 80 73 70 74 83 87 79 70 60 65 72 71 71 71 70 71 71 70 68 67
49 47 39 34 35 37 38 42 47 52 57 65 71 73 74 80 86 87 89 93 94 97 93 90 86 82 82 79 77 82 86 84 78 71 70 70 71 71 71 72 71 68 67 65
50 41 35 35 38 39 39 47 52 54 60 65 73 76 76 81 86 90 95 92 93 95 98 98 92 88 90 90 90 87 86 91 92 91 90 85 79 78 77 76 75 74 72 69
47 40 36 36 40 41 41 48 48 56 61 72 77 77 76 79 86 89 93 92 95 96 99 98 98 98 98 97 97 95 95 92 90 88 89 91 91 90 88 84 82 80 76 73
45 41 41 36 42 40 41 43 46 50 59 71 76 76 76 76 80 87 89 91 97 96 98 98 98 98 97 97 98 97 97 98 98 97 96 93 90 84 80 77 71 66 63 61
46 40 40 42 37 39 43 44 48 53 58 63 74 76 79 78 76 76 81 87 95 97 98 98 97 98 97 98 97 98 97 98 98 98 98 98 97 92 84 77 74 70 66 62
50 44 42 41 42 44 45 48 53 54 57 65 75 81 80 82 82 77 74 78 80 85 95 97 97 98 98 98 98 98 98 98 98 98 98 95 88 82 79 77 74 73 70 66
54 47 42 40 42 42 45 49 51 56 61 70 77 79 77 77 79 75 74 72 74 75 78 82 95 98 98 98 98 98 98 98 97 91 90 88 85 81 81 77 71 65 59 56

GFSNW_prec_cthk_087.txt.gz
RH
23 22 23 22 22 21 21 19 27 30 35 34 39 40 42 38 48 64 70 82 95 96 90 87 99 99 98 71 70 84 87 90 95 90 88 88 90 86 80 81 84 77 72 59
22 21 24 23 22 22 22 21 26 31 33 40 44 34 35 48 47 46 72 82 92 95 90 89 95 99 94 83 73 90 88 88 95 95 85 84 88 86 83 80 79 79 74 61
23 22 25 23 23 24 23 23 27 26 32 36 36 42 47 52 48 60 84 86 91 95 90 83 94 98 94 95 94 94 87 87 82 82 73 75 82 81 78 77 82 75 72 59
24 25 25 25 24 25 25 23 30 30 32 32 38 44 50 41 42 45 61 82 95 98 95 86 89 98 97 95 93 95 93 96 85 80 77 79 75 76 79 79 74 73 64 60
26 27 26 27 26 29 27 26 29 33 36 37 37 41 48 53 47 51 48 74 87 96 97 97 95 93 98 98 93 93 89 89 86 87 80 76 76 73 74 72 71 71 67 60
26 28 28 29 30 31 30 30 32 33 35 35 36 44 50 52 52 51 50 57 78 90 95 95 93 91 92 91 94 92 87 90 86 83 77 72 64 61 66 68 66 65 67 55
26 30 29 32 34 34 33 33 34 34 35 35 39 43 47 51 55 58 50 52 77 94 88 90 91 87 85 84 85 85 83 82 83 85 70 66 49 53 55 56 55 61 64 60
27 35 30 37 40 41 36 35 35 36 37 35 39 43 42 51 61 54 50 48 70 83 92 91 84 88 83 77 81 78 81 79 84 82 80 63 59 60 58 58 53 55 56 56
31 36 32 40 40 43 37 34 37 37 35 38 40 43 43 53 57 51 46 61 77 86 94 91 86 86 84 85 79 74 71 72 75 81 74 60 53 60 59 59 61 60 60 57
37 35 34 43 44 40 36 35 35 37 35 36 38 42 44 50 55 59 70 78 84 85 87 95 95 83 76 82 81 76 71 68 73 70 70 62 56 57 60 63 62 65 62 59
43 33 38 44 48 38 35 29 36 37 36 36 36 41 46 49 55 61 64 80 85 86 87 89 93 89 85 82 81 83 76 71 72 69 69 70 59 64 62 62 67 67 64 61
36 31 40 47 39 35 31 30 35 37 36 34 35 36 41 45 46 56 65 75 79 82 83 80 87 92 95 87 86 83 86 77 71 69 69 62 63 67 65 61 67 67 68 70
34 32 43 44 36 34 28 32 36 35 34 34 34 36 44 47 49 48 55 65 74 76 75 81 83 86 87 89 93 83 82 82 80 76 73 72 71 69 66 64 70 70 70 76
31 43 53 38 34 34 25 31 34 33 34 35 35 37 45 51 53 51 45 58 65 74 75 73 80 82 86 87 85 86 83 84 84 81 75 73 73 72 69 72 77 71 72 78
33 55 52 42 41 34 32 31 32 33 32 35 34 36 43 44 53 58 53 59 63 72 80 81 79 87 84 83 86 85 79 81 84 85 80 77 74 76 76 76 77 76 77 81
48 59 51 45 45 37 31 32 30 31 32 36 35 35 41 45 54 58 51 51 66 78 87 85 76 68 78 79 84 77 76 76 77 81 81 81 78 78 81 82 83 83 82 82
56 58 57 52 51 37 33 30 31 32 34 36 38 38 39 48 55 60 59 56 54 61 79 86 83 75 83 76 73 71 75 76 72 73 77 77 82 84 81 84 87 85 84 82
62 64 64 56 53 39 32 31 30 33 34 38 41 44 45 50 56 63 65 66 67 63 58 73 82 79 80 82 68 66 60 55 58 68 74 78 80 84 86 86 86 85 84 81
63 69 65 61 50 39 34 32 33 35 35 40 46 50 53 53 60 66 72 68 75 72 74 70 71 77 79 80 85 85 75 69 60 60 67 79 78 80 83 84 84 85 84 84
62 73 66 62 50 42 35 35 35 38 40 43 47 52 57 57 68 69 74 79 84 89 86 89 87 77 76 79 77 79 86 93 83 69 64 75 79 79 79 78 77 78 78 76
72 73 67 64 53 43 36 36 36 39 41 46 48 53 59 65 70 72 77 87 90 92 91 97 96 90 87 89 90 83 82 91 92 88 78 69 68 69 75 77 74 73 73 72
75 65 66 64 51 44 39 39 41 38 42 44 50 55 58 65 72 74 81 86 89 90 93 95 92 96 98 93 92 93 90 91 93 95 94 92 90 84 80 78 78 78 77 76
71 63 66 57 50 47 40 42 41 38 40 45 49 52 57 68 74 74 80 84 87 92 94 94 95 97 97 96 95 95 96 96 97 95 94 95 93 91 94 93 88 84 78 71
65 67 65 52 51 43 37 37 35 36 41 45 47 50 59 71 76 78 77 78 87 90 90 95 95 95 96 94 93 96 97 97 98 98 97 97 92 88 84 82 76 71 67 63
69 63 59 55 45 39 41 41 39 40 42 42 47 51 59 72 79 80 81 81 80 78 78 83 91 91 95 96 95 97 97 97 98 98 98 98 98 96 90 84 79 76 74 71
65 60 60 55 46 46 46 42 41 41 42 44 47 54 65 69 80 82 81 85 80 75 75 74 74 74 84 95 97 97 97 98 98 98 98 95 89 84 83 83 82 79 76 71
66 68 62 50 45 45 45 42 43 44 46 49 52 55 60 66 74 76 75 75 72 74 71 64 63 61 63 74 87 96 97 98 98 98 98 96 95 95 93 89 84 78 71 64

GFSNW_prec_cthk_090.txt.gz
RH
26 23 22 22 22 23 22 26 29 30 35 35 40 34 34 46 53 55 67 80 98 96 93 93 98 98 84 56 63 84 82 96 96 97 89 83 88 85 79 79 81 70 65 54
27 26 24 23 23 23 24 27 30 31 28 37 34 32 36 45 41 56 71 91 96 97 96 89 94 99 94 65 75 80 90 95 96 97 95 96 95 87 75 76 75 75 61 55
28 27 25 25 24 24 25 27 30 25 31 34 36 41 41 37 36 53 59 79 89 90 94 89 92 99 96 76 79 95 91 87 83 77 74 78 86 79 77 83 84 74 67 57
34 28 27 26 24 25 28 29 31 26 29 33 36 41 41 39 38 40 54 66 80 93 91 91 96 99 98 97 91 94 86 88 79 77 74 76 74 76 80 82 77 80 64 62
38 31 32 26 25 27 30 32 30 29 31 33 34 37 39 42 44 41 44 55 70 88 86 86 88 97 99 99 96 98 90 88 81 79 76 76 74 72 73 76 75 70 65 60
42 40 30 26 27 29 32 36 30 28 31 33 35 38 42 43 46 44 40 47 67 83 82 77 82 87 92 95 97 91 85 84 79 80 73 68 66 65 71 71 71 66 66 57
46 45 30 28 29 30 33 37 28 28 30 30 33 37 41 43 42 42 41 45 63 70 74 80 80 81 83 83 82 78 79 78 78 75 68 62 57 58 58 59 58 59 58 59
49 45 33 32 32 34 35 36 28 28 30 30 32 37 38 40 39 36 38 47 61 75 77 81 78 74 72 74 77 76 76 74 78 75 68 61 62 61 57 56 58 58 59 57
61 43 36 34 34 37 39 36 28 28 29 31 33 36 37 41 38 35 43 56 69 79 80 77 76 76 70 70 71 71 70 71 73 76 71 58 59 57 62 63 66 63 59 56
65 42 38 40 37 38 43 36 28 28 30 33 34 36 37 38 42 47 54 58 65 69 74 79 77 70 72 72 70 68 65 67 70 70 72 58 56 58 59 62 66 64 61 58
54 45 41 43 42 40 41 37 29 29 31 33 34 34 35 38 37 43 47 58 64 71 71 78 81 80 74 76 74 74 68 61 59 60 62 64 56 61 62 63 62 61 61 60
55 45 44 46 46 49 38 36 30 29 30 32 32 33 37 39 41 39 46 55 65 72 72 72 82 83 88 79 74 78 79 71 64 60 56 55 58 63 64 65 64 65 65 65
55 51 44 48 46 47 39 36 30 29 31 32 31 35 37 41 42 42 38 46 57 66 68 75 82 84 85 82 79 80 78 79 75 72 69 68 68 68 67 67 72 68 68 72
61 51 44 50 47 43 40 34 30 28 29 31 32 36 37 40 42 44 41 42 50 53 68 73 75 81 84 85 85 82 78 81 82 80 76 73 74 74 72 73 79 76 72 73
57 45 51 53 55 42 40 37 31 28 29 31 32 35 36 38 41 45 43 38 42 60 63 70 77 82 84 84 86 82 80 78 79 81 81 80 75 74 76 78 77 76 77 77
55 48 51 59 55 45 47 37 30 29 28 32 31 34 37 39 46 47 46 45 44 51 68 71 71 71 76 80 85 81 82 80 76 76 78 81 80 80 80 83 82 81 82 82
52 51 59 72 56 54 52 34 28 29 29 33 32 34 36 42 49 52 51 52 51 51 54 62 74 76 83 83 76 81 82 82 79 74 71 74 78 82 84 84 87 87 86 86
49 61 70 77 64 63 54 39 31 30 30 32 37 38 40 44 48 52 55 57 58 62 60 60 60 72 78 79 78 78 75 70 71 66 66 69 74 83 85 87 89 89 88 87
58 68 75 79 72 64 53 42 34 32 31 35 40 42 45 44 48 52 58 59 61 68 75 77 77 74 70 69 79 85 87 87 84 75 67 62 71 81 87 89 90 89 88 89
69 72 72 80 74 68 55 43 38 37 34 36 40 42 45 44 49 51 57 63 66 73 74 82 85 81 79 81 84 82 82 85 90 92 85 71 70 76 87 88 87 84 80 78
70 72 76 84 77 68 56 46 42 38 38 39 41 43 43 46 48 51 58 64 69 76 78 85 83 85 91 92 93 92 91 87 82 86 94 94 86 79 79 82 83 80 78 74
75 70 81 86 80 71 57 50 44 40 38 39 41 43 42 46 49 53 59 63 71 73 81 85 81 86 92 91 93 95 93 91 90 87 96 99 98 97 92 82 77 75 77 79
73 77 81 77 78 68 59 51 46 41 37 40 40 41 43 48 53 54 57 65 70 76 81 78 79 86 89 90 90 91 96 97 96 95 96 98 98 98 98 96 92 89 85 76
78 78 79 77 72 63 54 40 36 35 38 39 39 41 44 47 51 55 60 64 75 77 74 70 77 82 89 88 88 91 96 98 98 98 98 98 97 92 88 84 81 78 76 77
80 77 81 79 62 58 48 41 41 41 42 38 39 42 44 49 52 54 59 68 72 74 74 73 73 71 73 75 81 89 92 96 97 97 98 98 98 98 97 94 86 80 79 77
80 82 77 73 68 60 51 47 46 44 41 37 40 46 50 51 54 57 58 65 66 67 71 73 73 70 66 65 67 75 83 91 97 97 98 97 92 90 90 92 91 88 85 81
85 84 74 67 63 54 51 49 47 45 41 41 48 53 52 53 55 54 54 54 52 58 61 59 58 56 57 55 56 65 78 83 91 95 98 98 97 94 92 89 85 82 82 81

GFSNW_prec_cthk_093.txt.gz
RH
34 28 26 23 22 23 23 30 36 31 29 35 33 36 33 44 39 49 65 75 86 89 94 93 99 86 68 57 66 83 91 90 91 93 88 85 89 87 81 79 72 72 74 60
40 29 30 25 23 22 23 30 37 29 29 32 33 30 38 34 33 45 52 68 74 75 87 93 98 87 65 63 70 91 92 91 96 95 94 94 91 83 90 78 78 76 74 59
40 27 34 29 24 23 24 30 40 31 30 27 31 33 38 38 35 39 49 56 67 72 76 86 94 97 70 73 81 86 92 97 98 87 83 81 86 78 77 85 81 68 69 62
41 30 42 33 28 23 26 32 36 28 30 30 28 34 39 38 36 35 42 54 61 77 76 75 88 94 88 81 87 92 94 98 85 79 75 73 75 78 76 80 72 78 68 65
42 30 39 37 29 23 27 34 35 29 28 29 30 31 35 37 40 37 41 51 58 71 75 82 91 95 94 96 90 95 90 93 83 81 73 72 73 70 72 73 72 72 71 66
39 36 39 50 28 25 30 32 33 31 28 30 30 32 37 36 38 34 40 49 58 70 69 73 78 84 92 93 93 93 86 82 82 85 74 72 74 71 68 68 67 67 71 64
52 42 41 50 32 26 32 32 34 30 28 28 28 32 36 33 33 34 35 45 54 60 62 71 75 76 80 86 80 76 77 75 71 71 69 72 64 60 63 66 59 57 59 59
54 43 49 55 35 29 35 32 32 28 26 27 30 32 35 31 29 30 37 42 56 66 69 68 67 69 68 67 69 72 70 72 75 75 65 64 64 62 59 59 58 55 55 54
56 51 58 53 36 32 38 34 32 28 26 27 28 32 34 36 32 37 43 52 60 68 67 64 67 68 63 65 66 66 68 70 75 75 72 60 66 60 60 58 64 60 60 56
68 60 67 47 37 38 39 35 32 29 28 28 29 29 32 35 37 41 45 52 58 59 65 69 72 67 63 65 63 64 66 69 72 74 75 65 58 57 57 65 79 66 60 57
81 70 66 47 40 44 41 37 33 29 30 29 29 29 32 33 34 37 39 48 55 63 62 67 72 73 68 68 64 67 65 63 63 66 70 72 65 65 67 68 62 62 59 56
86 81 58 48 44 52 42 38 32 27 29 31 29 31 31 33 35 37 38 44 50 57 62 67 70 73 79 75 78 68 73 69 70 61 61 56 60 64 63 62 63 68 64 60
87 66 54 52 46 51 42 38 32 29 30 30 32 33 32 34 33 32 37 38 45 49 53 59 71 74 75 73 81 79 71 73 73 73 69 65 64 64 64 64 69 71 71 70
77 61 56 55 53 53 42 39 32 31 30 30 32 32 34 36 37 35 34 34 35 44 54 59 64 74 78 79 80 78 80 79 78 76 77 75 74 73 73 74 75 80 78 75
71 59 63 60 62 52 44 42 34 29 31 29 32 32 33 36 37 40 40 38 38 40 44 54 64 68 79 84 80 74 76 79 81 92 81 80 78 76 75 77 81 82 81 80
66 73 60 54 62 55 50 46 37 32 30 29 32 32 34 37 43 42 41 42 44 45 45 51 54 65 69 75 78 79 78 81 82 82 79 77 78 78 80 82 83 86 86 83
82 68 56 57 72 63 58 49 39 35 31 30 31 32 33 39 44 44 46 45 49 50 50 49 50 54 71 76 80 85 84 83 81 80 81 77 77 77 80 84 86 87 91 90
81 58 61 70 77 71 60 54 45 36 32 30 34 35 36 41 44 47 49 49 51 52 54 56 58 61 59 60 67 79 80 78 79 75 78 74 72 72 75 83 87 90 91 92
69 64 76 76 81 78 64 60 46 39 34 33 34 40 45 41 44 48 53 51 53 55 57 59 63 65 70 63 62 68 76 86 86 82 82 82 77 74 71 79 88 91 93 92
73 76 81 82 86 84 72 64 54 47 37 34 37 38 43 41 45 48 51 54 55 57 55 62 65 62 68 75 80 79 83 83 85 83 84 90 87 81 77 78 83 91 90 88
80 77 80 84 90 86 78 68 59 49 42 36 37 39 41 41 44 47 49 54 55 59 60 63 62 64 73 79 83 86 84 83 86 90 84 84 95 97 94 86 81 81 87 85
76 69 79 88 91 85 76 69 62 53 42 38 39 41 43 43 43 46 51 54 58 56 62 66 60 63 72 77 80 81 82 85 85 84 91 88 92 98 97 98 94 85 78 72
73 80 84 86 90 85 77 69 67 56 40 37 40 42 43 44 44 47 51 57 57 57 62 56 51 61 69 75 77 78 83 85 92 94 94 94 95 96 98 98 98 96 90 84
78 80 85 85 88 80 73 69 61 48 41 39 39 41 42 45 48 50 51 53 60 62 60 56 57 61 63 63 63 68 75 82 90 94 96 98 98 98 96 90 89 83 84 87
84 81 82 82 79 74 73 66 59 50 43 40 39 41 43 47 49 51 53 59 57 52 50 53 57 60 65 68 66 56 55 62 77 89 96 97 97 97 98 98 96 89 84 85
87 83 85 86 85 75 69 66 57 51 44 41 40 46 46 46 49 55 53 54 50 47 50 52 53 52 52 53 55 57 56 64 70 79 89 94 97 97 97 97 97 97 95 90
89 88 86 86 86 75 71 63 54 51 45 43 44 50 47 50 54 54 51 47 44 45 47 46 44 42 43 43 44 45 46 50 61 78 84 89 93 97 98 96 91 87 83 81

GFSNW_prec_cthk_096.txt.gz
RH
51 36 29 26 26 25 25 31 44 35 29 35 37 36 34 36 33 47 55 66 77 77 84 93 90 75 71 64 66 81 89 92 83 84 79 80 79 77 87 90 78 85 88 68
52 37 35 30 31 28 26 32 40 33 28 34 35 31 35 31 32 45 50 57 65 70 81 92 77 72 67 77 75 97 90 93 94 93 92 88 87 80 82 86 89 89 96 73
49 40 44 33 28 29 27 31 42 36 30 26 29 33 34 34 32 38 44 52 62 71 73 83 81 65 64 74 82 89 91 94 98 98 83 79 84 75 79 88 90 78 93 70
58 43 50 34 34 32 29 31 39 34 35 32 28 29 32 33 35 36 42 50 60 73 75 80 86 80 77 81 82 85 90 99 97 83 79 75 76 77 78 82 78 82 77 72
59 44 45 39 44 38 30 32 34 31 28 25 29 29 32 32 35 37 40 48 56 66 70 82 84 87 89 83 80 87 85 90 83 87 76 76 79 78 74 74 73 71 70 72
72 56 47 37 38 46 32 31 33 31 28 28 29 31 29 30 33 34 40 47 54 60 66 67 72 79 84 88 88 92 87 95 89 91 74 74 82 74 75 72 72 71 77 74
81 66 41 36 40 50 32 32 33 32 30 29 28 29 27 28 29 37 38 42 50 54 59 69 71 74 77 82 82 82 80 79 77 81 73 77 68 61 63 65 63 62 63 65
86 60 39 46 44 47 34 34 34 31 29 28 28 30 28 26 28 33 34 41 48 55 62 68 66 69 66 68 68 72 73 77 78 81 70 68 63 61 59 62 62 59 59 60
79 59 55 56 55 40 35 35 33 29 27 28 27 29 31 29 32 36 40 45 51 59 60 61 66 70 62 72 69 64 67 72 82 80 81 71 76 62 61 59 68 60 58 58
86 74 66 63 57 37 38 37 34 28 30 28 27 29 31 32 35 41 41 45 52 54 58 59 66 68 58 66 64 69 68 67 77 83 82 73 67 62 64 71 81 72 65 59
89 71 64 63 53 38 41 39 35 29 30 29 27 27 28 29 33 35 38 44 49 55 59 61 62 67 70 69 64 67 70 72 68 70 78 81 72 69 71 72 73 69 63 58
85 84 76 70 49 39 44 40 36 29 28 29 28 29 29 29 30 33 34 41 45 52 54 58 60 65 72 70 75 71 74 75 81 69 72 65 67 72 73 68 63 65 65 64
91 92 82 63 46 42 49 40 37 30 28 29 31 32 31 30 29 28 33 34 40 45 50 53 57 61 65 69 77 76 73 73 74 79 78 70 67 66 66 68 71 71 69 70
95 92 76 61 49 45 46 40 37 30 30 30 33 32 34 33 34 32 29 30 31 36 43 49 54 61 67 72 78 78 78 80 82 80 84 85 80 76 73 73 75 76 77 77
96 88 72 59 56 52 48 43 40 30 31 32 34 34 34 34 34 37 36 34 34 36 40 45 49 51 62 72 75 77 76 83 86 96 87 89 85 84 82 81 80 82 83 82
95 80 70 67 65 59 50 50 43 34 31 30 36 34 33 34 37 39 39 38 40 39 42 45 47 47 52 61 72 77 80 80 86 84 88 85 83 83 84 85 87 87 87 88
91 79 71 77 70 60 57 56 46 38 33 31 35 34 33 37 40 42 43 42 44 43 43 46 48 50 49 55 55 65 76 85 83 83 85 86 84 80 80 82 87 90 92 90
90 79 83 71 69 69 63 55 49 41 36 34 39 39 34 37 42 44 44 44 46 45 46 47 49 53 51 52 53 57 61 71 81 85 83 82 81 82 78 77 79 84 92 94
87 89 81 71 71 79 70 58 54 47 42 40 40 38 43 39 42 43 47 46 50 48 49 50 53 52 54 51 56 60 66 66 68 75 82 87 84 85 84 78 81 82 84 96
92 85 76 76 77 88 78 64 58 57 49 43 46 40 41 40 42 46 48 49 51 53 50 51 54 51 49 55 60 64 71 75 77 77 80 81 80 85 92 92 91 86 82 88
91 84 82 87 86 88 90 82 71 66 58 48 47 41 38 43 42 47 46 48 51 55 57 55 55 47 54 55 60 67 69 71 75 78 77 81 86 84 86 96 97 93 88 84
87 78 90 95 96 95 89 82 75 69 58 52 49 44 41 42 43 44 49 48 51 53 56 57 51 48 53 56 59 63 64 67 71 79 83 84 86 87 87 94 98 98 98 95
83 88 95 94 96 94 87 78 77 72 58 56 51 46 43 43 43 43 48 49 53 52 57 54 44 50 53 56 58 56 56 51 52 69 78 83 89 92 93 93 97 98 97 96
91 88 90 88 92 85 78 73 75 68 61 58 49 45 43 44 45 48 48 48 54 60 59 48 47 49 51 54 56 55 53 56 54 54 63 74 85 92 93 95 96 93 91 94
89 83 86 85 86 81 82 81 76 68 63 55 47 46 47 47 49 49 48 55 54 51 47 48 46 47 48 49 51 47 47 50 56 60 63 68 71 83 92 94 96 97 95 94
90 87 86 84 84 82 84 86 79 71 65 52 45 50 50 48 48 53 48 48 50 48 48 45 45 44 43 41 39 36 37 41 48 52 61 68 72 76 82 90 96 97 97 94
95 91 85 86 85 82 82 80 77 70 61 50 48 52 48 51 52 52 51 48 46 48 48 46 44 40 39 36 34 32 34 35 39 42 47 52 64 74 77 83 90 96 93 90

GFSNW_prec_cthk_099.txt.gz
RH
88 49 38 32 30 28 34 40 41 36 33 30 34 33 31 29 33 43 51 57 67 72 79 80 75 69 65 64 61 79 81 77 65 75 84 78 77 80 89 87 84 89 81 69
94 48 43 35 33 29 40 41 39 37 32 31 34 31 32 28 33 42 46 51 57 67 76 76 67 78 71 71 82 86 80 77 76 79 80 80 82 77 79 89 88 92 92 75
91 59 48 37 36 39 37 37 41 40 34 25 29 34 32 31 31 36 45 49 56 70 72 67 64 68 75 78 82 90 90 90 92 84 72 73 80 76 76 85 89 97 95 78
90 65 42 35 42 42 34 36 40 38 36 29 28 30 30 30 33 33 44 48 57 65 73 71 72 75 77 75 78 83 91 92 92 83 75 72 71 73 76 81 80 90 86 79
87 63 43 45 62 39 43 37 34 35 28 24 29 30 31 29 31 36 42 47 55 60 71 74 79 78 80 80 78 82 83 89 84 85 73 75 78 75 73 81 79 80 79 79
87 77 55 49 57 40 38 42 34 32 28 28 30 30 27 27 31 35 40 44 52 54 59 66 70 78 79 83 86 83 82 86 86 88 75 77 83 79 77 80 78 77 78 77
88 72 53 46 58 41 39 38 35 33 29 29 28 28 25 26 30 36 38 40 47 50 54 62 68 73 78 77 77 83 87 83 83 84 70 80 74 71 75 78 75 75 74 75
87 77 55 57 44 41 40 40 35 32 29 27 27 28 25 26 29 31 34 39 43 50 58 64 67 71 70 68 71 72 77 78 84 81 78 69 66 65 66 72 76 72 70 69
94 87 75 60 42 43 44 37 37 32 27 28 26 28 26 29 33 34 37 43 49 54 59 63 59 71 68 71 67 62 62 71 80 82 81 74 76 66 64 63 78 73 66 61
95 90 72 54 56 58 44 36 37 30 28 29 25 28 29 28 29 35 39 42 50 52 56 55 65 67 59 67 70 73 71 68 74 80 87 76 71 68 66 69 77 73 69 64
96 83 67 59 72 46 37 37 36 28 27 29 27 28 28 28 31 36 35 43 46 51 53 54 56 62 66 71 67 67 69 76 78 77 79 84 78 76 73 75 75 77 76 69
89 79 80 78 67 47 39 39 37 29 25 30 27 29 28 27 28 30 33 38 42 48 51 51 50 56 61 63 75 74 75 77 83 79 82 69 72 77 79 75 69 72 72 70
89 84 90 80 60 42 40 41 38 30 30 31 33 33 31 29 25 25 28 32 34 39 43 47 50 55 61 64 73 78 80 78 79 79 81 81 77 71 73 77 78 81 80 76
93 90 90 81 57 47 44 43 37 29 30 33 37 38 35 33 30 26 26 27 29 34 37 41 45 50 55 61 69 75 77 80 82 83 82 86 83 84 80 75 76 77 81 84
92 92 94 77 55 47 48 43 37 31 30 34 39 40 37 35 34 34 30 29 29 32 36 40 44 44 49 53 61 68 68 79 88 91 88 90 89 84 83 84 85 84 86 89
95 96 92 67 54 51 48 44 42 36 31 31 40 40 38 36 39 37 37 33 32 33 35 41 42 43 46 52 51 57 71 76 77 85 91 86 87 90 85 85 86 88 89 91
98 97 87 69 61 54 52 50 45 40 35 32 41 40 39 41 41 42 41 39 40 38 37 41 44 43 44 49 53 53 57 59 68 78 80 85 89 87 83 83 83 85 89 92
98 98 86 74 67 63 57 53 51 44 38 36 41 46 40 42 43 44 43 42 42 40 40 41 43 45 46 48 46 51 53 56 60 63 70 78 83 87 87 80 81 83 81 82
98 96 80 76 77 66 57 55 51 47 41 40 44 43 47 44 44 45 45 44 46 44 44 44 46 47 49 44 46 52 56 59 64 68 71 72 70 74 85 91 88 88 87 87
98 88 81 87 76 70 67 63 53 51 48 47 51 46 46 44 45 48 48 47 47 48 46 45 47 46 39 44 48 51 57 60 62 65 71 73 76 76 79 82 86 96 98 94
91 92 93 84 76 85 88 78 64 60 58 54 56 48 47 47 46 49 46 48 48 46 52 51 51 44 42 46 48 51 55 55 55 54 59 68 74 77 81 83 82 89 96 98
95 93 90 87 88 94 95 88 79 69 64 60 58 55 47 48 46 44 49 47 48 47 51 53 48 38 42 46 48 49 50 49 45 45 48 55 66 74 82 87 88 91 97 98
96 95 97 96 96 95 89 80 77 74 71 67 61 58 51 49 46 44 48 48 51 52 51 49 42 40 44 45 46 47 46 44 44 46 51 55 60 64 73 87 94 95 97 98
96 96 96 95 93 87 79 74 71 72 72 65 59 53 53 51 49 49 49 49 53 54 56 46 41 42 44 45 45 45 43 39 40 41 46 54 63 68 70 72 83 94 92 95
97 96 92 92 85 83 82 79 80 80 74 64 60 55 54 53 54 51 52 54 53 49 44 40 41 45 44 43 42 42 38 35 36 40 44 50 57 65 70 74 76 82 90 97
97 94 91 86 85 85 85 86 87 80 70 59 54 55 56 54 53 56 56 53 48 42 41 41 45 46 46 42 39 34 32 30 33 36 40 45 51 57 62 65 72 77 86 86
95 91 88 86 84 81 87 89 86 82 71 63 58 58 54 57 57 61 53 47 43 44 43 43 45 46 45 42 38 33 31 33 34 36 38 38 43 52 58 62 64 69 77 88

GFSNW_prec_cthk_102.txt.gz
RH
99 99 63 34 30 28 50 44 52 37 42 31 29 31 28 27 31 39 50 54 63 67 67 67 62 66 72 72 71 83 75 70 80 78 81 80 84 80 84 80 77 76 69 63
98 98 60 34 30 39 41 53 41 40 42 33 30 29 27 27 35 39 44 48 58 61 65 69 60 68 76 76 74 78 73 69 74 75 78 79 82 80 76 77 76 83 75 67
96 94 65 45 33 34 49 53 42 42 36 25 27 30 28 30 33 36 42 50 59 59 63 63 63 67 70 74 76 74 75 78 78 72 70 74 80 75 74 76 80 83 81 71
99 89 55 32 33 39 51 50 39 38 38 28 28 29 27 30 32 34 42 49 59 62 65 59 62 64 69 71 75 73 75 76 80 77 76 72 72 73 77 82 83 89 84 79
99 92 58 37 38 43 58 39 38 35 30 25 28 29 28 28 32 36 40 47 55 60 66 72 70 66 70 75 75 78 79 82 73 74 69 72 73 70 74 81 78 86 91 85
99 81 59 49 41 50 54 44 34 31 29 28 30 28 27 27 30 35 37 42 49 56 59 64 70 70 73 72 77 77 77 82 80 81 71 71 80 80 77 79 83 81 86 81
98 86 65 44 44 70 46 41 33 32 30 27 28 26 24 27 31 34 36 38 44 48 53 59 64 72 76 75 75 80 85 83 83 84 73 81 77 76 81 81 82 81 80 80
95 80 58 48 58 66 41 41 33 31 29 27 27 26 26 28 31 32 33 35 39 45 54 61 65 67 68 69 75 76 80 83 87 87 84 74 74 76 76 78 84 83 81 80
96 86 69 61 70 61 43 41 35 32 25 26 24 26 27 30 31 32 34 41 46 49 55 60 58 65 63 68 67 66 69 75 81 82 85 81 81 71 71 69 84 80 79 74
93 85 74 60 59 54 45 43 37 32 26 28 26 28 27 27 31 33 37 40 46 48 52 54 60 57 60 64 68 72 71 71 73 79 85 79 75 73 73 74 77 79 74 69
94 87 74 60 68 50 44 43 39 31 27 29 27 28 29 27 27 32 34 42 43 47 49 48 53 58 60 63 61 63 68 74 77 78 79 82 77 80 79 78 81 80 77 73
96 92 79 73 69 54 50 40 40 30 23 30 30 30 29 27 29 31 33 35 37 41 45 46 48 50 56 58 57 62 68 71 80 79 79 74 76 75 80 80 77 77 76 74
98 93 82 85 68 60 43 39 38 31 31 30 30 31 29 26 26 26 28 31 32 36 39 42 45 44 49 56 60 67 65 71 74 75 82 83 83 81 76 78 81 84 86 84
96 89 90 88 71 58 40 40 38 31 30 33 38 37 34 31 26 24 24 25 27 31 35 36 40 42 45 49 55 62 64 71 75 80 81 82 84 86 86 84 81 80 83 87
93 91 92 87 73 53 43 44 38 31 28 35 40 40 38 36 35 30 27 26 28 31 34 37 40 39 42 44 48 53 57 65 72 80 81 85 86 88 86 87 87 89 89 87
93 94 95 92 65 48 48 48 41 33 30 29 42 43 39 39 38 35 32 30 31 31 33 36 36 37 39 45 42 43 50 60 66 69 75 81 82 85 92 87 87 88 92 94
94 96 97 86 61 52 51 48 41 35 31 31 43 44 43 45 42 41 39 37 35 35 36 37 38 39 38 41 45 41 45 49 53 55 57 63 72 79 84 84 83 87 87 91
96 98 98 76 63 53 53 50 45 42 35 36 43 48 49 48 45 44 44 42 40 39 39 40 39 39 39 40 36 40 44 46 47 50 53 58 61 65 71 77 84 85 85 86
97 98 90 73 62 55 55 53 49 46 40 42 44 45 49 50 48 45 46 42 43 42 43 42 43 42 41 33 33 38 41 43 47 50 55 59 62 65 68 69 73 79 89 92
98 97 80 71 68 62 58 56 49 47 43 44 47 47 50 48 46 47 48 46 47 50 45 44 47 40 33 33 34 37 41 43 46 47 47 48 55 60 66 70 74 76 82 82
97 91 88 83 79 71 69 61 56 54 54 52 56 51 53 52 51 50 45 49 48 50 49 50 47 45 35 34 37 38 41 42 43 40 39 41 44 50 55 63 72 79 81 82
93 89 91 89 84 81 86 84 73 64 58 59 63 61 57 54 51 50 50 48 49 50 51 50 46 35 36 39 41 42 41 41 39 37 38 41 45 49 53 56 63 72 81 86
95 95 95 91 91 95 91 85 80 74 67 67 69 68 58 56 51 50 52 50 53 52 52 48 40 35 39 42 43 44 43 42 37 35 35 37 42 47 53 59 63 67 72 81
97 96 96 96 95 87 83 78 75 70 67 66 65 66 62 56 53 52 56 55 57 57 57 48 37 35 39 43 45 45 45 42 37 34 35 36 41 45 48 54 59 63 69 72
97 96 96 94 87 84 83 79 73 71 70 69 65 61 58 56 54 54 57 61 54 53 48 39 35 36 41 44 45 45 46 42 36 32 32 36 39 43 46 49 54 58 63 70
97 95 93 91 87 86 86 82 83 82 80 72 66 65 61 59 55 58 61 62 55 43 40 39 41 41 43 44 44 44 41 37 33 33 34 35 38 41 44 47 52 57 62 65
95 94 91 88 86 86 87 86 88 82 76 73 68 62 59 59 58 60 59 54 44 40 40 41 42 42 43 44 45 44 40 36 36 34 34 37 38 41 45 49 52 54 60 62

GFSNW_prec_cthk_105.txt.gz
RH
94 96 98 96 87 45 31 40 63 53 46 45 32 31 26 30 33 39 45 52 54 58 58 58 60 72 69 68 74 74 74 73 78 76 77 82 78 80 87 84 84 80 74 73
97 98 98 98 82 30 33 42 66 55 49 41 31 28 26 28 34 37 42 47 51 54 58 58 58 75 69 68 70 71 71 72 76 73 71 79 81 78 77 79 77 78 72 68
97 97 90 96 63 30 30 45 61 56 52 31 26 29 26 31 35 37 41 49 52 53 60 60 61 70 69 73 73 74 74 73 75 79 74 78 83 76 74 75 78 83 80 70
98 98 96 85 44 32 40 55 57 39 43 31 27 26 26 33 35 35 41 48 51 52 55 58 58 66 66 71 73 75 78 82 79 74 76 76 76 74 72 77 81 80 81 72
97 96 98 61 45 34 42 66 46 38 34 25 28 27 27 31 33 36 39 45 50 54 59 61 60 61 70 75 73 74 76 82 78 76 71 74 77 73 74 80 82 82 80 79
97 94 90 58 40 40 48 64 36 33 34 27 28 28 26 30 31 35 37 43 50 54 55 58 62 61 64 69 73 75 76 81 82 77 70 70 72 71 75 78 78 80 83 80
98 99 84 58 34 40 56 53 35 33 32 27 27 26 24 29 30 34 35 39 43 45 48 54 61 67 67 69 72 77 81 79 79 81 72 81 75 77 78 79 79 79 76 76
93 96 78 49 35 46 64 47 37 31 31 27 28 26 27 30 31 34 33 36 39 42 50 55 56 61 63 66 72 75 78 84 84 84 83 75 79 81 91 88 87 83 81 80
90 91 84 54 45 72 74 41 37 30 24 27 25 26 28 32 33 33 32 35 43 46 48 53 53 58 57 62 61 66 71 75 78 83 84 84 83 75 76 78 88 85 82 78
91 90 72 60 63 69 61 40 36 30 24 27 26 26 28 27 29 32 35 40 44 46 50 50 53 52 54 60 62 68 68 70 70 74 81 78 75 78 79 79 78 81 78 76
97 93 68 52 76 73 53 40 39 30 26 29 29 26 26 27 29 31 34 41 43 47 46 47 49 53 53 55 55 58 63 69 72 73 75 77 76 79 78 80 85 86 81 77
97 81 67 65 80 76 49 42 40 31 25 32 32 31 28 25 26 29 34 34 36 38 42 44 45 47 50 50 52 53 61 63 71 71 72 74 77 75 78 81 77 79 78 76
95 86 80 78 71 71 48 43 39 31 30 32 32 33 30 29 29 29 30 33 33 34 36 39 43 41 45 49 50 56 56 59 64 70 73 74 74 75 77 76 77 80 80 82
95 94 87 68 75 63 48 44 38 33 29 31 36 35 31 28 25 24 24 24 27 31 33 35 38 40 39 44 46 48 53 57 64 69 70 71 75 77 77 79 82 83 82 82
96 90 86 80 77 65 50 43 39 34 28 35 38 39 36 33 27 26 25 25 27 30 32 34 36 38 38 39 41 43 43 49 56 60 64 69 73 75 78 78 81 83 87 89
98 94 95 95 78 63 49 44 42 36 29 28 40 41 40 38 35 31 29 29 30 30 31 34 34 35 38 41 41 32 39 42 46 51 57 62 65 70 74 80 79 78 83 87
97 97 98 94 74 58 46 44 44 36 30 28 40 44 45 44 41 38 35 33 33 32 34 35 37 38 38 40 41 31 36 39 42 43 44 46 50 54 62 69 74 76 79 84
97 98 96 86 72 58 48 48 46 37 31 30 40 48 50 47 45 45 43 40 37 35 37 38 38 38 40 40 30 33 36 37 39 38 39 39 42 47 52 55 59 66 76 81
97 97 97 82 67 56 53 53 46 39 34 38 42 47 51 48 49 46 44 41 41 39 40 40 39 41 41 30 30 32 35 36 35 38 39 40 43 47 50 53 56 62 65 70
98 98 84 73 66 58 55 54 47 42 42 44 46 46 50 50 48 47 45 43 43 44 42 42 43 39 30 30 30 31 35 36 37 38 38 36 34 35 42 48 52 57 63 70
97 91 84 73 65 58 56 53 52 48 49 53 54 48 51 52 53 51 45 49 48 50 47 47 47 42 31 29 32 35 38 40 39 39 37 33 35 38 39 42 45 51 57 61
90 84 77 74 71 67 67 63 60 56 52 60 61 57 54 56 54 50 49 51 51 54 50 49 47 32 30 30 33 37 40 42 41 39 36 33 33 37 40 44 47 52 55 60
87 85 87 88 87 87 81 80 72 67 65 67 68 66 62 60 56 50 52 54 57 54 55 51 39 32 33 35 37 40 42 43 43 41 37 35 34 36 40 44 48 50 53 57
97 97 96 94 91 84 80 78 76 69 68 68 65 66 64 63 61 55 56 56 60 60 62 52 37 31 34 38 40 41 43 43 45 42 38 35 35 36 40 43 47 48 50 53
97 96 96 93 88 85 82 78 73 72 70 68 67 65 64 66 61 59 60 64 62 58 54 41 34 33 35 39 41 42 43 44 43 41 38 35 35 37 39 43 44 46 49 51
98 97 96 92 89 88 84 79 74 72 70 66 64 65 65 66 61 62 62 64 60 48 43 37 36 35 37 41 43 44 44 43 40 36 38 39 38 38 41 42 46 48 50 53
97 96 93 90 88 87 85 81 73 73 73 74 70 67 65 65 64 64 61 59 48 41 40 41 39 37 40 42 44 44 45 44 38 37 38 39 41 41 41 44 48 50 52 54

GFSNW_prec_cthk_108.txt.gz
RH
70 54 60 71 79 89 93 77 63 57 65 58 43 36 29 28 34 41 44 49 53 50 52 59 58 63 66 67 68 69 66 67 83 80 81 88 88 88 89 81 82 80 78 81
60 59 66 84 87 92 92 65 69 59 76 48 41 30 28 28 33 38 42 47 49 50 50 55 58 64 61 67 69 72 73 69 67 65 72 77 84 83 88 82 81 84 79 81
59 75 77 89 96 96 77 55 56 67 78 45 35 30 28 30 32 37 40 48 50 51 52 56 60 63 60 63 63 65 64 73 75 74 78 81 82 79 82 76 73 80 76 70
79 88 89 90 93 93 59 40 48 66 60 43 31 28 26 30 34 35 41 48 48 49 54 54 56 62 59 62 64 67 72 77 74 77 75 79 78 77 75 75 74 69 70 67
96 97 96 90 93 85 56 39 48 64 38 33 28 28 27 30 33 35 40 46 51 51 49 50 55 57 64 70 68 69 73 78 77 75 73 75 75 75 78 78 74 71 70 69
97 97 91 98 97 81 48 42 56 49 36 32 28 28 26 29 31 36 37 46 51 51 53 54 52 56 60 66 70 71 74 75 76 73 70 74 75 70 74 76 74 77 74 74
97 93 91 96 91 57 42 44 63 32 35 27 28 27 23 29 31 35 39 45 47 47 49 52 59 61 63 66 70 73 77 75 74 75 66 79 68 74 74 79 81 80 79 81
98 97 95 96 71 53 42 63 50 30 32 27 30 27 26 31 32 35 37 40 40 42 50 53 54 59 60 65 70 73 74 78 77 76 78 71 79 81 91 85 85 84 84 81
97 94 96 75 57 48 46 66 46 29 27 28 27 27 27 32 34 35 35 38 40 46 48 50 52 55 55 58 58 63 66 70 73 77 77 80 79 74 77 85 93 88 84 80
95 91 89 66 50 55 59 57 37 28 25 29 26 25 28 28 31 33 33 38 44 46 50 49 51 52 50 57 56 60 58 61 64 70 76 72 72 74 76 77 76 83 81 79
95 91 84 71 52 55 68 56 35 28 25 29 26 25 26 28 27 30 33 42 43 46 45 45 48 49 50 51 50 50 52 58 63 68 72 73 69 70 72 78 83 84 80 77
97 95 85 55 50 66 68 51 34 27 21 30 29 27 27 26 27 28 35 35 37 38 39 41 43 46 50 48 51 47 50 50 57 59 62 68 72 73 72 74 74 75 76 76
98 97 87 57 71 74 59 40 35 29 28 31 32 31 29 28 27 28 32 33 33 34 34 37 40 40 43 49 48 50 48 50 50 56 60 62 65 68 71 73 73 71 74 76
98 86 69 72 80 73 60 41 37 31 26 31 37 35 31 29 28 28 28 28 29 31 32 34 36 37 37 42 43 46 46 48 50 53 55 56 59 63 66 69 72 73 75 75
97 87 73 84 79 68 49 45 40 34 26 32 38 37 34 29 27 24 25 25 26 28 31 33 34 35 36 38 39 40 38 41 47 49 48 52 56 60 63 65 67 68 71 73
94 80 81 88 73 58 51 47 42 35 29 27 38 39 40 35 31 29 28 29 29 29 29 33 33 33 34 37 39 27 30 36 41 44 48 50 52 55 58 60 62 65 69 75
95 86 92 82 77 66 49 44 45 38 32 28 38 42 44 40 37 35 33 32 30 29 32 33 34 34 34 37 37 26 31 35 40 41 42 43 44 44 46 49 53 57 60 65
98 97 91 88 79 66 53 45 44 39 32 29 36 45 48 43 42 42 39 35 32 32 34 35 35 36 38 38 27 27 31 34 37 39 39 39 38 38 41 44 46 48 50 52
98 97 97 90 78 64 49 47 47 41 33 32 35 44 50 47 46 46 43 40 38 37 38 38 37 38 39 27 25 26 30 32 34 38 38 38 38 38 39 41 44 46 48 51
98 98 95 86 72 59 49 49 47 43 37 34 40 45 49 49 46 47 45 44 42 41 41 41 44 38 26 26 26 26 30 33 34 36 38 38 38 35 33 35 38 40 42 45
97 97 87 81 69 58 50 49 50 46 45 45 47 48 50 49 49 50 46 47 45 48 46 48 48 41 30 26 27 28 31 34 36 38 38 37 36 35 34 36 38 40 43 47
97 89 80 78 68 65 59 55 56 51 46 56 57 55 51 51 49 50 51 47 46 52 51 51 52 34 28 28 29 30 33 36 39 40 40 38 35 34 35 37 39 41 44 45
91 85 79 71 71 74 66 64 64 62 63 63 64 62 57 54 50 52 54 53 53 52 58 56 43 34 31 31 32 35 37 39 41 42 41 39 36 35 35 36 40 42 44 46
94 91 88 86 90 79 70 69 69 64 64 64 61 63 60 60 57 56 58 58 60 63 63 55 42 33 31 33 34 36 39 41 43 43 42 40 38 36 35 38 41 42 42 46
98 98 96 93 90 85 80 77 75 69 68 66 63 61 60 63 61 59 62 69 66 64 58 47 38 33 34 36 37 39 41 43 44 45 42 39 39 36 37 39 41 42 43 44
98 96 94 94 91 89 84 80 77 71 68 62 59 63 64 65 63 66 66 67 64 52 47 39 39 36 36 37 39 40 41 43 44 44 40 36 40 41 41 41 42 43 45 47
97 96 94 94 92 90 86 80 74 71 65 66 64 62 63 66 67 66 64 62 50 41 40 42 41 39 37 38 39 41 42 42 46 44 40 38 41 45 44 43 43 44 48 49

GFSNW_prec_cthk_111.txt.gz
RH
91 91 76 61 68 81 77 86 92 94 82 70 66 43 33 31 32 43 45 48 48 44 53 49 57 62 66 72 74 70 71 71 78 77 86 93 91 94 91 84 83 79 78 89
86 84 73 58 71 77 86 93 96 86 86 62 54 36 33 29 34 41 43 48 47 44 49 54 54 61 61 64 70 72 69 69 69 64 68 77 86 87 87 81 78 86 83 88
88 85 65 59 67 69 74 86 95 87 71 63 44 35 30 31 35 39 42 47 47 47 49 56 56 57 55 59 61 67 72 75 72 78 78 78 79 80 79 73 77 80 81 78
87 86 68 60 71 72 84 87 87 75 62 63 44 31 28 30 35 38 43 47 47 50 55 54 57 58 54 57 60 65 70 76 82 79 80 75 76 73 72 73 75 75 75 77
85 77 76 72 78 89 91 84 68 66 59 49 39 29 29 28 34 37 42 45 47 49 49 47 54 55 60 63 60 64 67 74 76 76 77 74 71 72 72 74 72 71 70 67
83 76 78 90 88 92 95 75 50 41 53 37 32 28 28 28 34 37 39 45 50 52 53 50 48 54 58 61 62 64 68 67 67 70 69 71 71 71 71 72 74 73 76 72
83 85 82 84 93 94 84 56 41 45 44 31 26 27 24 30 33 37 43 47 48 48 49 52 54 55 56 61 64 66 70 68 68 70 60 72 68 76 75 78 77 72 73 71
82 86 82 88 95 94 68 42 49 40 31 29 28 28 27 32 34 38 42 43 44 44 51 53 55 60 59 61 64 64 69 69 70 70 72 68 72 77 82 80 83 78 74 69
86 88 91 94 93 82 49 46 46 30 25 27 27 28 27 33 35 38 40 41 41 47 47 48 51 54 51 57 57 59 60 61 65 71 73 76 73 70 78 80 90 81 74 71
91 95 97 96 95 76 45 53 50 31 26 27 28 26 28 29 31 35 37 40 42 45 47 47 49 51 49 56 57 57 55 56 58 64 70 67 66 69 71 70 76 83 80 78
93 93 92 95 76 51 48 56 43 24 24 29 27 24 26 28 28 31 32 39 42 44 44 44 47 47 49 51 48 49 51 55 57 60 63 66 62 63 64 69 75 77 74 72
93 93 93 83 65 59 52 48 29 23 20 30 28 27 27 27 27 28 34 34 36 37 38 40 42 45 49 46 48 47 50 47 52 51 51 55 60 62 64 66 66 67 69 71
93 95 85 72 63 62 57 46 31 22 25 30 30 31 30 28 27 29 33 33 34 34 32 36 38 38 40 45 45 46 46 47 48 52 54 56 56 57 60 63 64 66 67 66
92 95 86 65 58 64 61 46 31 23 23 32 35 32 30 29 28 27 29 30 30 32 31 32 35 36 35 39 39 41 42 45 46 49 51 52 52 52 55 58 60 61 64 67
93 90 84 75 57 59 60 45 29 24 22 32 38 34 31 29 28 27 28 29 29 29 30 32 32 34 35 36 36 36 34 38 42 43 43 46 48 52 53 55 55 57 60 62
97 94 90 58 65 70 58 42 33 26 22 26 38 38 35 30 29 28 27 27 28 28 28 31 31 32 32 36 36 24 26 31 35 39 40 43 46 48 51 52 52 52 52 54
97 92 81 79 79 75 55 44 37 31 26 26 38 42 38 33 31 32 32 31 30 28 29 32 33 34 33 35 35 23 25 30 34 37 39 43 44 45 44 43 44 46 47 47
92 92 88 81 80 72 52 46 44 34 29 27 35 43 43 38 38 37 35 32 31 30 32 34 35 36 36 37 26 25 29 31 34 36 36 37 38 38 38 38 39 40 41 42
95 93 88 85 73 58 54 47 43 38 31 30 32 41 47 43 41 41 41 39 38 35 35 37 37 37 38 25 24 24 28 29 30 34 35 36 36 36 35 34 34 34 35 38
97 93 84 80 70 57 57 50 54 42 35 31 34 38 45 46 45 44 43 44 42 40 39 41 44 38 25 24 23 23 27 30 31 33 36 35 35 36 34 32 34 35 38 38
96 95 93 85 75 66 59 47 47 44 43 39 40 40 44 47 46 46 44 47 48 44 42 47 49 43 31 25 25 25 27 32 34 34 35 36 36 35 33 32 33 35 37 39
97 93 87 84 76 64 55 51 51 50 46 50 47 44 45 48 46 46 47 48 49 48 47 51 52 37 30 28 27 27 29 33 35 36 39 39 38 36 34 33 35 36 39 41
94 94 93 83 73 73 65 55 56 57 59 57 55 54 51 49 48 50 51 51 52 52 56 56 46 37 34 31 29 29 32 36 37 40 41 42 41 38 37 37 36 37 40 42
95 92 88 81 82 70 65 61 61 61 62 62 58 60 55 53 52 51 53 53 56 61 66 54 44 38 36 33 31 32 34 37 40 42 42 44 43 40 38 38 37 39 41 43
97 93 86 80 80 84 75 69 67 64 64 65 59 57 55 57 55 54 58 64 66 62 54 48 41 39 36 35 36 35 36 38 41 42 43 45 44 41 41 40 40 42 43 44
97 96 94 91 90 90 86 82 75 68 66 62 58 58 59 59 58 62 60 63 61 50 46 40 37 35 37 38 38 37 37 39 41 42 43 43 43 42 43 44 44 43 44 46
94 93 91 93 90 89 88 84 81 76 69 68 64 59 58 62 65 63 60 60 50 41 38 37 38 38 40 41 41 40 40 40 40 42 42 42 44 45 45 44 44 46 44 46

GFSNW_prec_cthk_114.txt.gz
RH
96 93 90 84 69 79 66 68 66 68 93 84 89 58 32 32 32 44 47 47 43 41 43 45 58 61 64 67 65 69 70 73 87 93 87 88 88 89 84 83 81 79 77 94
97 90 89 80 86 82 67 73 75 84 96 89 77 42 34 31 34 45 46 46 43 44 46 47 50 64 60 64 67 71 71 70 78 78 86 78 83 83 83 79 80 86 74 90
95 89 85 78 86 86 80 75 82 94 95 91 51 37 34 32 35 43 43 45 44 43 46 49 47 58 58 60 63 70 68 76 83 82 86 85 86 77 74 73 75 76 78 77
89 89 78 72 74 78 80 82 87 92 90 74 44 37 30 31 36 41 44 46 47 46 48 49 53 55 56 57 62 66 69 79 80 78 76 81 76 75 70 76 68 72 72 73
85 84 74 63 65 73 75 74 86 91 72 48 44 39 30 30 35 39 41 43 43 46 46 45 53 55 60 63 60 63 66 74 73 76 71 70 70 71 69 67 65 66 67 69
87 84 72 65 64 67 62 69 85 75 56 48 45 32 28 27 33 38 40 43 47 48 46 46 50 55 59 61 62 62 65 64 65 71 66 64 65 69 71 69 66 62 62 63
78 74 68 64 60 58 74 91 79 57 40 39 34 27 26 27 34 37 42 46 46 48 47 48 49 54 58 60 62 64 64 63 60 57 55 65 71 73 72 67 68 65 62 61
73 65 60 60 67 77 93 83 52 33 39 32 29 28 26 31 36 40 45 46 45 45 49 50 51 52 56 58 60 61 63 62 58 56 56 62 66 70 75 73 72 66 63 63
65 55 57 68 79 91 89 62 34 34 27 28 25 28 26 32 36 40 46 44 43 46 46 45 44 46 46 48 52 53 54 54 55 58 59 61 57 64 69 69 74 68 63 61
71 61 72 88 90 91 74 39 39 29 26 28 28 26 25 30 33 36 39 41 44 45 43 42 42 43 45 46 45 47 45 45 49 50 52 53 55 58 58 57 67 69 67 66
86 86 84 92 90 84 53 34 36 29 29 27 27 24 26 28 30 31 35 38 40 42 43 39 40 39 42 42 42 43 42 43 44 47 50 53 52 56 56 58 68 68 67 66
83 85 89 90 82 67 36 34 44 28 19 28 28 25 27 27 28 29 33 34 34 36 36 35 36 38 41 37 37 41 40 39 42 42 42 48 50 52 54 56 58 61 62 62
83 91 92 85 76 52 31 41 25 19 23 27 28 29 29 28 28 29 31 31 34 34 32 32 33 32 34 34 34 37 38 39 41 46 47 51 51 52 52 51 52 52 53 54
86 94 96 92 71 47 40 36 25 20 20 25 31 30 29 29 28 29 30 31 30 32 31 31 31 30 32 31 33 35 33 37 38 41 45 49 49 49 50 49 49 49 49 50
90 92 90 68 70 54 42 36 27 21 20 27 31 30 29 28 27 27 27 30 31 30 29 28 30 31 32 32 33 30 28 30 32 33 34 39 41 43 44 47 48 47 48 48
89 80 68 70 75 58 41 35 27 22 20 23 30 31 29 29 28 28 29 29 28 26 28 29 29 30 31 30 28 20 23 26 28 30 32 37 39 40 42 44 44 45 44 44
94 86 71 64 71 63 44 34 26 23 22 23 32 34 32 29 29 30 29 28 27 26 29 30 31 32 32 32 27 20 22 27 29 31 32 37 38 39 39 41 40 39 39 39
95 86 69 67 72 66 52 36 28 24 23 25 33 37 35 31 33 34 32 30 29 28 31 33 33 34 34 32 22 23 24 28 31 32 33 34 36 37 36 35 34 34 34 35
92 84 74 76 73 70 53 40 33 28 23 27 31 37 39 36 38 38 37 34 32 31 31 34 36 35 33 22 22 24 24 26 29 33 34 35 35 34 33 32 31 31 31 33
91 85 79 77 73 69 55 45 38 35 29 25 29 34 40 40 40 40 40 40 38 38 36 39 41 35 25 22 22 22 24 28 30 33 35 35 36 33 33 32 30 29 31 34
90 89 83 79 73 69 56 50 46 42 37 32 33 33 37 42 42 41 40 44 44 42 38 42 42 38 31 26 23 23 25 29 31 32 34 35 35 34 34 32 30 32 33 36
91 89 83 79 72 62 58 60 51 48 42 42 38 36 37 41 43 43 43 45 47 44 44 46 42 33 33 31 27 25 26 30 32 35 34 36 37 36 36 34 34 35 36 39
90 88 85 82 76 73 65 59 56 56 54 52 49 45 42 43 45 46 45 47 48 47 52 47 41 36 36 34 30 28 29 32 34 35 36 38 38 38 38 36 36 38 39 41
95 96 93 85 77 67 61 57 55 54 59 60 53 52 47 48 49 47 47 48 51 55 57 46 38 37 37 36 33 31 32 33 34 35 37 38 38 39 40 38 39 40 41 43
95 93 86 78 71 74 68 64 63 62 62 61 57 54 55 54 51 50 53 57 59 53 47 40 36 37 36 35 32 32 33 35 35 36 37 38 38 38 38 40 42 44 44 46
97 94 89 83 79 80 80 78 73 67 64 60 58 58 57 55 52 57 55 52 53 49 46 39 35 34 34 35 37 37 37 37 39 38 38 38 36 35 39 44 47 48 48 48
94 90 90 91 86 87 91 87 78 70 66 64 65 63 58 58 59 57 53 56 49 44 42 40 37 36 37 38 39 40 41 42 43 42 40 39 38 41 45 47 48 48 49 50

GFSNW_prec_cthk_120.txt.gz
RH
81 81 91 88 92 89 82 77 73 70 72 78 83 71 71 61 39 40 48 47 47 45 42 45 56 64 60 62 64 82 87 90 96 93 80 79 83 91 84 93 96 96 96 98
75 82 84 83 84 75 74 75 76 70 69 82 85 74 61 42 38 44 46 46 44 42 44 50 51 63 63 61 62 70 80 82 92 91 82 81 83 79 79 81 85 93 96 98
76 81 75 75 71 68 62 69 70 75 81 87 82 66 41 37 36 44 46 45 44 42 45 44 47 58 61 63 63 71 85 79 88 98 99 94 95 81 80 84 88 94 97 95
76 72 67 67 63 59 59 72 74 82 94 90 75 46 35 35 36 44 44 44 47 53 47 45 48 53 62 64 66 71 81 81 74 80 81 80 81 84 82 78 80 88 87 85
69 63 61 62 58 57 58 70 80 89 92 80 53 37 34 33 34 42 44 46 45 46 51 54 52 52 57 66 65 67 70 73 69 69 73 75 77 82 85 87 86 80 83 80
58 56 52 55 56 64 69 78 84 83 72 63 53 43 32 30 34 41 41 43 47 48 48 50 53 54 54 59 65 64 63 65 68 66 60 62 73 83 76 74 71 71 73 73
53 51 49 53 60 73 76 80 71 63 55 47 41 31 29 30 36 40 40 46 48 49 48 47 49 53 56 58 60 60 63 61 63 67 60 73 68 73 74 69 68 68 67 64
45 45 45 53 61 66 72 71 54 50 41 36 34 28 29 30 37 42 44 43 44 43 49 53 53 54 54 54 53 56 56 60 60 65 65 69 70 69 71 71 69 66 64 62
38 42 46 50 58 60 69 59 43 35 32 30 28 28 27 31 38 43 44 42 41 44 45 46 51 54 42 48 50 46 50 53 59 55 61 66 64 62 62 67 75 68 64 63
34 39 42 44 51 53 59 45 37 28 27 27 26 27 28 32 37 44 43 41 41 41 43 44 53 45 38 46 44 44 43 45 53 51 57 52 50 55 57 64 69 66 60 57
30 32 34 37 41 54 45 37 31 27 24 25 26 25 27 32 34 38 38 39 39 41 44 42 40 41 39 37 34 37 39 43 43 43 45 55 45 48 54 58 56 53 52 53
31 30 30 38 47 42 40 31 27 26 22 23 24 23 25 30 31 34 36 37 37 39 42 36 35 39 37 36 40 30 36 36 39 42 43 38 39 42 44 49 49 49 47 46
37 38 42 48 46 34 34 27 25 18 21 25 26 24 25 27 27 29 33 31 34 34 33 34 34 35 32 35 32 29 28 28 32 34 36 38 38 39 41 42 42 40 41 41
41 44 49 50 42 39 28 27 17 18 19 22 23 22 24 26 26 27 29 29 30 31 30 30 31 33 29 31 30 30 30 27 28 32 34 36 36 37 37 36 36 37 38 38
53 54 57 49 40 30 27 19 17 16 19 22 24 22 24 24 25 25 26 28 30 30 30 29 31 27 27 27 27 26 22 24 27 27 24 26 27 30 31 32 33 33 34 35
59 54 50 41 33 26 26 20 20 17 16 19 24 24 24 25 25 24 25 25 26 28 29 27 26 25 27 30 29 17 17 19 20 23 23 25 26 28 30 30 30 31 32 33
62 55 53 48 39 27 26 26 25 19 17 19 23 24 23 24 25 25 25 24 24 26 27 26 27 26 26 30 29 16 17 19 21 21 21 26 25 26 28 29 29 30 31 31
61 58 58 52 41 31 28 27 25 22 19 19 26 27 24 22 25 27 25 26 24 24 26 28 29 30 28 33 20 19 18 20 21 23 22 23 25 26 27 29 30 31 30 29
66 66 67 67 54 44 37 30 25 23 21 22 23 27 32 24 27 28 27 27 31 28 29 28 32 32 36 22 19 18 18 19 20 23 25 26 26 26 28 29 30 30 29 28
70 77 78 70 59 55 50 41 31 26 26 25 25 23 27 27 27 30 32 31 36 39 36 33 34 34 22 22 22 20 19 20 22 24 26 27 28 28 29 31 31 31 31 31
71 68 68 66 57 58 57 54 43 33 32 28 29 28 27 28 31 35 30 39 40 44 42 37 39 36 26 24 24 24 22 21 22 24 25 27 28 29 31 32 32 33 33 32
70 64 63 61 57 59 63 58 52 44 35 31 31 31 31 28 29 32 32 38 38 43 39 42 43 31 26 25 26 27 26 24 25 26 26 27 29 30 31 32 33 33 33 33
70 64 60 64 72 74 72 60 58 54 41 35 33 34 31 31 33 35 38 41 43 37 44 42 37 32 30 28 28 29 29 27 27 28 27 27 29 30 30 32 32 32 32 33
78 75 76 79 80 72 63 63 60 56 54 49 40 35 35 33 33 36 41 40 41 46 51 41 36 32 32 30 31 31 31 29 28 28 29 30 30 31 32 32 32 33 33 34
79 81 82 71 62 65 64 63 62 62 59 58 53 47 45 44 41 36 39 43 46 44 41 37 33 33 33 33 33 32 31 30 29 29 30 32 33 35 36 36 35 34 33 36
78 74 70 69 67 68 70 70 66 61 63 60 60 59 59 56 50 49 43 42 39 37 40 37 35 35 36 37 36 33 32 32 33 34 35 37 38 40 39 39 36 34 36 39
68 66 68 70 74 74 77 78 75 70 67 66 65 67 63 64 65 57 47 45 36 37 38 38 37 36 38 40 40 36 36 38 39 39 39 41 42 43 43 40 38 39 41 45

GFSNW_prec_cthk_123.txt.gz
RH
70 75 77 79 78 61 59 76 82 70 79 79 74 75 78 54 39 49 55 53 49 47 45 51 60 65 64 65 70 83 91 97 93 89 83 89 88 92 85 92 94 95 98 98
64 73 73 73 65 56 52 64 64 71 79 89 90 72 57 41 44 52 50 49 45 42 44 54 62 66 63 61 72 84 87 91 89 79 81 85 88 82 80 80 86 96 96 98
63 67 63 61 58 50 54 56 65 73 84 86 80 53 40 39 44 50 49 46 43 45 45 45 55 67 67 66 81 82 86 87 91 92 95 93 92 83 80 81 90 95 97 96
55 53 52 53 50 47 54 60 73 82 86 71 53 38 36 39 43 47 47 47 47 50 49 48 53 65 69 69 78 78 79 86 86 81 80 83 86 86 88 83 90 90 93 90
43 44 42 40 41 45 58 69 76 81 75 56 45 40 34 39 44 47 47 48 45 46 53 53 53 57 64 69 72 73 70 77 76 73 71 76 85 80 78 78 76 83 79 80
35 36 37 39 43 53 64 69 66 58 54 48 46 41 32 36 42 43 45 47 46 49 49 52 52 52 57 61 63 63 63 65 71 68 61 58 70 76 68 68 68 72 74 75
31 34 40 44 51 58 61 52 46 45 42 39 36 32 31 36 39 40 46 47 46 45 44 47 51 51 53 56 56 55 56 57 57 62 56 70 66 68 64 65 64 64 67 66
32 39 47 49 53 54 50 40 36 32 34 32 30 29 31 35 39 43 43 42 40 42 48 52 52 56 53 52 50 51 52 54 53 56 65 65 66 65 65 65 66 61 61 64
36 39 42 43 46 46 44 28 26 26 27 29 28 27 28 35 38 40 41 39 40 40 47 50 46 51 41 49 48 46 47 50 52 51 60 64 60 59 61 64 65 60 56 55
32 32 34 38 39 40 30 28 24 21 22 26 26 26 29 31 35 39 38 37 39 38 45 45 49 44 40 44 41 40 44 48 49 51 53 50 51 56 58 64 65 59 50 46
27 27 28 34 36 32 28 28 24 18 20 24 25 25 28 30 32 34 33 34 36 37 42 44 41 45 40 39 35 35 37 40 43 44 46 49 45 49 53 53 54 52 46 42
26 25 28 33 37 29 27 25 20 18 20 21 23 23 26 28 29 28 30 30 33 36 41 39 38 41 40 39 39 32 34 33 34 36 35 39 40 42 44 45 46 45 42 41
26 25 29 32 33 30 28 23 17 18 19 22 23 21 24 24 24 26 29 28 29 29 29 31 33 33 34 36 35 31 29 29 32 32 28 32 36 38 39 42 43 40 41 42
29 27 30 35 31 30 29 20 16 18 20 22 20 20 22 23 23 24 26 26 26 27 27 28 30 31 30 32 29 30 27 27 28 30 31 32 32 33 35 36 35 36 39 40
29 33 36 38 35 32 24 17 16 16 19 21 20 20 21 22 22 23 23 25 26 26 27 29 29 28 27 27 29 28 20 25 26 27 23 24 24 28 33 33 33 33 34 37
36 42 48 46 34 30 23 19 18 17 17 17 21 21 22 23 22 22 23 24 24 25 26 27 25 25 26 30 31 17 15 16 17 19 20 24 24 27 30 31 31 32 33 35
49 50 52 44 35 29 27 24 23 21 18 18 22 22 22 24 24 24 23 23 22 23 25 25 26 25 24 29 32 16 16 17 18 19 21 25 26 27 29 30 30 32 32 32
58 54 52 46 38 32 30 27 26 23 21 20 24 26 22 22 24 25 24 25 24 23 24 27 27 28 28 32 19 17 17 20 21 21 21 21 24 27 30 31 30 31 31 30
58 58 58 55 48 41 33 31 29 26 23 23 23 23 24 22 25 25 24 26 30 27 29 27 30 31 34 21 18 17 18 18 19 23 23 23 23 26 29 30 31 31 31 29
63 63 62 65 62 48 44 42 36 33 29 26 26 25 26 22 25 26 28 28 33 36 34 32 36 30 19 18 18 19 19 19 19 22 25 25 25 25 27 29 31 32 30 30
69 71 72 69 64 67 62 53 49 45 37 32 29 29 29 26 26 28 26 32 36 40 37 38 38 37 23 19 18 20 21 21 20 19 20 22 23 24 26 29 30 31 30 31
72 73 74 72 70 64 63 55 52 53 47 44 36 31 30 30 29 29 29 32 35 34 38 41 39 27 22 22 21 20 21 22 23 23 22 24 24 25 26 28 29 29 30 30
72 69 67 68 70 65 53 49 51 56 50 52 51 43 32 30 31 32 33 38 37 33 41 38 31 25 25 26 25 24 23 24 25 25 25 25 25 26 27 27 28 29 30 30
68 63 62 62 61 55 49 47 49 51 56 56 54 54 45 36 33 35 38 35 39 44 45 35 31 27 26 27 27 28 27 26 27 26 25 25 26 27 28 29 30 31 31 31
71 69 69 60 55 57 55 55 55 56 56 59 61 59 57 56 42 36 38 41 43 38 32 29 26 30 29 29 30 31 31 29 28 27 27 27 28 28 30 32 33 33 34 33
68 66 62 60 60 57 57 57 60 60 62 63 65 67 66 64 60 54 44 40 36 30 30 24 26 29 34 33 34 35 36 34 31 30 31 32 32 32 34 36 37 37 36 37
65 64 59 57 57 55 56 57 63 65 65 69 71 73 68 67 70 66 54 48 36 35 38 37 35 34 34 39 38 40 41 39 38 37 38 38 39 39 39 41 42 40 39 40

GFSNW_prec_cthk_126.txt.gz
RH
52 54 57 55 52 50 64 67 64 70 69 67 80 76 51 41 49 59 58 58 54 55 55 59 66 66 68 68 79 87 89 87 88 93 85 87 91 98 92 92 93 94 96 96
42 46 45 43 48 54 55 53 60 76 84 74 63 48 45 44 50 54 53 54 50 48 53 64 65 67 65 68 77 84 80 80 85 78 77 84 92 93 89 85 89 92 96 96
35 37 37 36 39 40 41 52 70 75 70 55 50 40 41 45 49 50 49 48 50 48 49 55 69 67 74 71 74 77 78 85 85 87 92 88 90 90 86 86 92 95 98 97
29 31 32 34 39 45 48 56 65 61 52 46 40 36 39 45 46 46 47 49 50 50 53 59 67 67 74 69 70 73 73 83 83 87 85 84 86 84 79 82 86 94 97 96
27 29 32 36 44 50 52 54 54 49 46 45 37 36 40 43 46 46 47 47 48 51 53 53 60 66 70 68 63 63 65 69 72 75 77 75 79 75 71 70 71 81 86 91
25 27 30 35 42 48 47 45 42 39 38 40 37 35 36 41 43 46 49 48 48 51 52 50 54 58 60 59 60 60 62 65 68 64 59 56 64 68 64 68 67 68 78 84
28 30 31 35 41 41 34 30 29 31 37 36 33 32 35 39 39 44 48 46 44 46 47 49 51 53 53 51 50 52 55 59 60 61 53 60 57 60 59 62 63 61 63 68
30 31 33 38 37 31 25 24 24 26 32 31 30 31 35 38 39 41 41 40 39 45 50 53 52 53 50 49 47 44 48 52 52 55 61 56 54 58 55 56 59 57 54 54
34 35 37 35 33 29 20 21 21 23 25 30 29 30 33 36 37 37 36 36 37 42 48 46 46 49 42 42 43 42 45 47 48 49 54 57 48 49 54 48 54 52 48 48
34 37 34 33 33 30 22 22 20 20 21 25 26 29 33 34 37 36 34 32 33 35 40 44 45 39 39 42 38 37 39 42 44 47 50 43 43 46 49 56 48 47 43 42
33 33 36 35 32 27 26 23 19 18 20 24 24 27 31 33 33 33 31 31 30 34 37 38 39 40 37 36 33 31 34 37 42 43 42 37 35 40 43 42 44 39 35 35
29 32 34 36 34 27 27 22 18 18 18 21 23 25 28 29 29 30 29 29 30 32 35 34 34 35 37 35 35 30 32 31 32 33 32 31 32 33 34 35 37 36 33 33
24 27 33 34 33 31 29 21 18 18 18 19 20 21 25 26 25 28 28 27 28 28 27 29 32 31 32 33 31 28 26 27 31 30 26 30 32 33 30 31 30 29 30 32
24 25 31 34 32 32 33 22 18 20 20 20 19 19 22 24 24 25 27 25 26 26 27 28 30 31 28 29 28 30 24 26 26 27 27 29 29 31 31 31 30 28 28 28
26 24 29 34 32 33 29 18 18 19 20 22 19 17 21 22 23 24 24 26 27 27 28 29 29 28 30 29 29 28 19 22 24 22 19 21 22 25 29 31 29 28 29 30
29 27 30 35 35 29 24 20 18 18 18 19 19 19 20 22 23 24 24 25 26 26 26 27 26 26 26 28 31 15 14 14 15 15 17 19 20 23 26 28 28 27 27 28
32 30 37 45 36 29 28 21 19 20 19 19 19 20 20 21 22 24 24 24 24 25 26 26 26 26 25 28 31 14 13 14 15 16 18 22 21 22 26 27 27 28 30 31
41 42 43 47 46 36 30 26 23 23 21 20 23 22 19 20 21 23 24 25 25 25 25 27 28 28 28 31 18 15 15 16 18 17 18 18 19 24 26 27 27 29 30 30
52 56 53 50 51 48 36 29 28 28 26 24 23 22 19 19 22 22 23 23 28 27 31 28 28 28 32 20 18 16 16 16 16 19 20 21 21 23 26 27 28 28 29 31
55 57 60 60 58 52 46 42 36 32 32 30 29 25 27 21 23 23 24 25 28 32 32 31 36 32 19 15 16 16 17 20 21 21 23 23 24 24 25 25 26 29 31 33
59 59 64 66 64 63 58 52 48 45 44 42 43 41 35 28 28 27 25 30 31 34 29 37 37 37 25 18 16 17 17 20 21 20 19 19 19 22 25 27 28 29 31 31
64 63 66 68 69 62 62 58 53 53 49 49 51 49 48 45 36 30 30 32 34 34 33 37 36 27 23 23 22 18 18 20 22 22 21 22 23 24 25 26 28 29 30 30
68 67 65 65 65 63 58 53 50 51 49 50 51 54 50 51 49 43 36 39 38 33 40 34 25 20 21 23 24 25 23 23 23 23 23 24 24 25 26 26 28 31 31 30
69 70 64 58 56 57 52 51 49 46 48 48 50 51 50 53 54 53 50 40 39 43 43 29 25 21 25 27 29 29 28 27 27 26 25 26 25 26 27 28 29 30 30 32
70 65 62 52 44 46 49 47 48 47 45 46 51 54 53 56 55 58 57 56 54 43 30 25 21 24 26 27 29 32 33 32 33 33 31 29 28 27 28 30 31 31 32 33
68 66 60 55 55 50 50 49 49 47 48 49 50 57 58 56 55 60 60 60 55 46 43 32 29 23 26 30 29 30 37 41 41 39 38 36 34 32 32 34 34 34 34 36
68 63 56 49 51 52 52 50 50 51 51 54 53 52 50 52 55 54 50 58 54 51 49 48 45 39 33 36 41 41 38 42 48 48 46 44 43 42 42 39 37 38 39 40

GFSNW_prec_cthk_129.txt.gz
RH
33 36 36 38 41 46 51 58 66 64 63 66 57 48 47 57 61 59 57 53 49 50 53 57 64 72 77 78 84 90 91 98 98 97 91 89 88 89 89 90 90 89 97 95
29 30 33 39 43 43 45 54 57 49 45 52 48 40 43 48 55 54 53 50 45 47 55 63 64 71 69 78 84 82 86 92 91 89 82 79 89 87 87 87 90 94 96 94
31 30 32 36 36 38 40 47 50 47 42 45 40 39 44 49 49 48 46 45 44 45 56 56 64 73 75 80 82 80 83 85 86 87 89 86 86 83 81 84 91 95 98 96
32 31 32 36 37 39 39 42 46 45 42 40 37 37 42 45 46 44 44 45 46 51 57 58 66 68 73 76 76 77 78 87 84 85 85 82 79 80 78 82 87 94 95 97
35 36 37 39 41 41 40 40 40 40 40 38 36 38 40 44 46 45 46 47 47 50 55 60 64 64 68 71 70 69 69 74 72 77 73 69 68 70 72 74 79 83 89 95
32 37 38 39 40 36 37 36 34 34 37 38 35 38 39 42 44 46 45 46 47 47 53 57 56 57 60 61 63 65 65 63 66 62 58 57 59 62 60 66 71 73 79 86
32 33 36 40 36 28 26 26 28 29 37 34 34 35 38 41 39 43 45 44 42 42 46 49 50 50 53 55 56 55 57 58 58 60 51 51 47 50 56 59 64 63 56 67
31 33 37 38 29 25 23 23 23 24 31 31 32 34 38 39 42 44 43 42 40 44 46 46 46 47 46 48 48 46 50 53 50 54 56 46 45 46 51 51 54 53 48 53
30 31 36 34 29 24 23 21 21 22 24 27 30 32 34 36 38 38 35 39 41 44 48 45 41 44 39 39 40 43 46 43 44 49 50 47 36 42 44 48 52 48 42 42
31 33 31 34 32 26 25 24 20 21 20 24 26 30 33 34 36 36 36 34 36 39 41 42 43 37 36 39 37 33 37 40 41 45 47 37 33 40 41 42 39 40 38 36
31 33 32 32 30 28 25 21 19 20 21 23 24 27 30 33 33 33 31 32 32 35 37 38 36 39 36 35 33 31 32 36 40 42 39 31 31 34 36 31 35 34 33 32
29 30 30 29 27 25 24 19 17 19 20 22 24 26 29 29 29 30 29 30 31 32 34 34 34 35 38 34 32 28 32 28 30 31 26 23 28 30 30 29 29 29 28 31
25 27 27 31 30 24 24 17 16 18 18 20 23 24 26 27 25 29 29 28 28 29 28 29 31 30 32 33 32 27 25 24 28 28 22 23 25 26 27 28 27 25 26 27
24 25 26 28 28 24 24 16 14 16 18 19 18 20 22 26 25 25 27 26 28 28 28 28 29 29 26 28 26 29 23 25 25 25 22 23 22 23 25 25 27 25 24 24
26 25 25 28 31 29 24 17 15 16 16 18 18 17 18 21 23 24 24 26 28 28 29 30 28 27 29 28 29 27 19 21 21 20 15 15 15 16 22 23 23 23 22 23
26 26 26 27 34 35 26 21 16 16 17 17 18 17 18 20 21 22 23 24 25 27 28 28 27 27 27 27 29 15 13 13 12 12 12 15 15 15 20 21 24 24 23 24
27 30 27 28 35 38 29 24 21 19 20 19 19 18 18 19 21 24 24 24 24 26 26 28 27 27 27 30 30 13 11 11 13 13 14 17 16 16 18 20 22 23 23 24
33 32 34 35 35 39 37 28 25 24 23 23 25 21 17 18 20 21 23 25 26 27 27 29 28 28 30 34 18 14 14 14 15 15 15 15 16 17 19 22 25 25 25 25
35 35 36 39 40 46 46 43 36 29 24 24 27 25 20 20 21 22 24 24 28 25 29 28 30 30 34 18 17 16 16 17 15 16 17 18 19 18 19 21 24 25 26 27
43 44 43 45 47 49 50 50 48 40 34 32 32 31 33 27 27 26 26 26 27 29 28 28 34 34 23 20 20 18 16 18 20 21 22 20 19 19 21 22 23 22 24 26
50 49 49 52 53 57 56 52 48 44 43 42 45 46 46 43 42 38 32 32 32 35 29 34 33 32 26 24 25 24 18 17 19 20 20 21 21 20 21 23 25 27 27 27
56 52 51 54 56 54 56 55 49 51 48 48 49 49 48 49 48 46 46 46 43 39 35 39 34 22 19 23 22 22 23 21 19 21 22 22 23 25 24 24 25 26 27 29
71 66 61 58 59 58 51 48 46 51 50 50 49 51 47 48 48 50 50 52 49 44 48 41 29 19 20 19 19 23 25 25 25 24 25 27 26 26 27 27 27 28 30 30
73 75 72 65 58 56 48 44 43 42 45 47 48 49 48 47 50 50 50 44 47 51 51 40 38 29 21 23 21 22 25 28 29 29 28 28 29 28 28 28 29 30 30 31
76 74 69 59 48 47 49 45 43 44 45 45 46 48 47 48 46 46 45 47 47 42 39 38 36 38 36 35 31 25 25 27 29 31 33 33 33 32 32 32 32 33 34 35
80 75 67 57 52 50 50 49 45 43 43 42 43 48 50 50 48 49 47 41 37 34 36 30 33 34 40 39 39 38 32 29 29 32 34 37 41 39 36 37 39 39 39 39
83 77 69 61 56 51 48 47 47 48 48 51 50 49 47 47 49 46 40 39 36 29 30 33 37 38 41 46 53 53 53 46 40 36 36 43 47 47 48 48 46 45 46 45